Time,TemperatureF,DewpointF,PressureIn,WindDirection,WindDirectionDegrees,WindSpeedMPH,WindSpeedGustMPH,Humidity,HourlyPrecipIn,Conditions,Clouds,dailyrainin,SoftwareType,DateUTC
2013-04-28 00:00:00,52.3,7.5,29.94,North,0,5.8,8.3,16,0.00,,---,0.00,VWS V14.01,2013-04-28 06:00:00,
2013-04-28 00:01:00,52.3,7.5,29.94,North,353,8.1,8.7,16,0.00,,---,0.00,VWS V14.01,2013-04-28 06:01:00,
2013-04-28 00:03:00,52.3,10.1,29.94,WNW,293,5.8,8.7,18,0.00,,---,0.00,VWS V14.01,2013-04-28 06:03:00,
2013-04-28 00:04:00,52.3,10.1,29.94,West,266,4.0,8.7,18,0.00,,---,0.00,VWS V14.01,2013-04-28 06:04:00,
2013-04-28 00:05:00,52.3,10.1,29.94,WNW,297,4.0,8.7,18,0.00,,---,0.00,VWS V14.01,2013-04-28 06:05:00,
2013-04-28 00:06:00,52.3,10.1,29.94,North,353,3.6,8.7,18,0.00,,---,0.00,VWS V14.01,2013-04-28 06:06:00,
2013-04-28 00:08:00,52.3,10.1,29.94,WNW,286,2.7,8.7,18,0.00,,---,0.00,VWS V14.01,2013-04-28 06:08:00,
2013-04-28 00:10:00,52.2,10.0,29.94,NW,308,2.2,8.7,18,0.00,,---,0.00,VWS V14.01,2013-04-28 06:10:00,
2013-04-28 00:11:00,52.0,9.8,29.94,NNW,342,2.2,8.7,18,0.00,,---,0.00,VWS V14.01,2013-04-28 06:11:00,
2013-04-28 00:13:00,51.8,9.7,29.94,NW,315,2.7,8.7,18,0.00,,---,0.00,VWS V14.01,2013-04-28 06:13:00,
2013-04-28 00:15:00,51.6,10.7,29.94,NW,316,0.0,3.1,19,0.00,,---,0.00,VWS V14.01,2013-04-28 06:15:00,
2013-04-28 00:16:00,51.6,10.7,29.94,West,274,2.7,3.1,19,0.00,,---,0.00,VWS V14.01,2013-04-28 06:16:00,
2013-04-28 00:18:00,51.6,13.0,29.94,WSW,256,2.2,3.6,21,0.00,,---,0.00,VWS V14.01,2013-04-28 06:18:00,
2013-04-28 00:20:00,51.4,12.8,29.94,SW,215,4.0,5.8,21,0.00,,---,0.00,VWS V14.01,2013-04-28 06:20:00,
2013-04-28 00:21:00,51.4,12.8,29.94,SW,224,3.6,6.3,21,0.00,,---,0.00,VWS V14.01,2013-04-28 06:21:00,
2013-04-28 00:22:00,51.4,12.8,29.94,SW,225,4.0,6.3,21,0.00,,---,0.00,VWS V14.01,2013-04-28 06:22:00,
2013-04-28 00:23:00,51.4,12.8,29.94,SW,230,4.0,6.3,21,0.00,,---,0.00,VWS V14.01,2013-04-28 06:23:00,
2013-04-28 00:25:00,51.6,13.0,29.94,SW,219,8.3,8.3,21,0.00,,---,0.00,VWS V14.01,2013-04-28 06:25:00,
2013-04-28 00:26:00,51.6,13.0,29.94,WSW,258,6.3,8.3,21,0.00,,---,0.00,VWS V14.01,2013-04-28 06:26:00,
2013-04-28 00:27:00,51.6,13.0,29.94,WSW,240,4.9,8.3,21,0.00,,---,0.00,VWS V14.01,2013-04-28 06:27:00,
2013-04-28 00:29:00,51.8,13.1,29.94,SW,228,3.6,8.3,21,0.00,,---,0.00,VWS V14.01,2013-04-28 06:29:00,
2013-04-28 00:30:00,51.8,13.1,29.94,SW,229,2.7,2.7,21,0.00,,---,0.00,VWS V14.01,2013-04-28 06:30:00,
2013-04-28 00:31:00,51.8,13.1,29.94,NNW,335,3.1,4.0,21,0.00,,---,0.00,VWS V14.01,2013-04-28 06:31:00,
2013-04-28 00:32:00,51.8,13.1,29.94,SSW,210,3.1,4.0,21,0.00,,---,0.00,VWS V14.01,2013-04-28 06:32:00,
2013-04-28 00:34:00,51.6,13.0,29.94,SW,227,3.1,5.8,21,0.00,,---,0.00,VWS V14.01,2013-04-28 06:34:00,
2013-04-28 00:35:00,51.6,13.0,29.94,SSW,199,3.1,5.8,21,0.00,,---,0.00,VWS V14.01,2013-04-28 06:35:00,
2013-04-28 00:36:00,51.6,13.0,29.94,SSW,195,3.1,5.8,21,0.00,,---,0.00,VWS V14.01,2013-04-28 06:36:00,
2013-04-28 00:37:00,51.6,13.0,29.94,SSW,193,3.1,5.8,21,0.00,,---,0.00,VWS V14.01,2013-04-28 06:37:00,
2013-04-28 00:39:00,51.6,13.0,29.94,SSW,211,3.1,5.8,21,0.00,,---,0.00,VWS V14.01,2013-04-28 06:39:00,
2013-04-28 00:40:00,51.6,13.0,29.94,SSW,211,3.6,5.8,21,0.00,,---,0.00,VWS V14.01,2013-04-28 06:40:00,
2013-04-28 00:41:00,51.6,13.0,29.94,SSW,211,2.2,5.8,21,0.00,,---,0.00,VWS V14.01,2013-04-28 06:41:00,
2013-04-28 00:42:00,51.4,12.8,29.94,SSW,211,2.2,5.8,21,0.00,,---,0.00,VWS V14.01,2013-04-28 06:42:00,
2013-04-28 00:44:00,51.4,12.8,29.94,South,188,4.0,5.8,21,0.00,,---,0.00,VWS V14.01,2013-04-28 06:44:00,
2013-04-28 00:46:00,51.3,12.7,29.94,SSW,194,3.6,4.0,21,0.00,,---,0.00,VWS V14.01,2013-04-28 06:46:00,
2013-04-28 00:47:00,51.3,12.7,29.94,SSW,194,2.2,4.0,21,0.00,,---,0.00,VWS V14.01,2013-04-28 06:47:00,
2013-04-28 00:48:00,51.3,12.7,29.94,South,179,2.7,4.0,21,0.00,,---,0.00,VWS V14.01,2013-04-28 06:48:00,
2013-04-28 00:49:00,51.1,12.5,29.94,South,179,2.7,4.0,21,0.00,,---,0.00,VWS V14.01,2013-04-28 06:49:00,
2013-04-28 00:51:00,51.1,12.5,29.94,South,179,0.0,4.0,21,0.00,,---,0.00,VWS V14.01,2013-04-28 06:51:00,
2013-04-28 00:52:00,50.9,12.4,29.94,South,179,0.0,4.0,21,0.00,,---,0.00,VWS V14.01,2013-04-28 06:52:00,
2013-04-28 00:53:00,50.9,12.4,29.94,South,181,3.1,4.0,21,0.00,,---,0.00,VWS V14.01,2013-04-28 06:53:00,
2013-04-28 00:55:00,50.7,12.2,29.94,SSW,211,3.1,4.0,21,0.00,,---,0.00,VWS V14.01,2013-04-28 06:55:00,
2013-04-28 00:56:00,50.5,12.1,29.94,SSW,209,3.1,4.0,21,0.00,,---,0.00,VWS V14.01,2013-04-28 06:56:00,
2013-04-28 00:57:00,50.5,12.1,29.94,SSW,197,4.0,4.0,21,0.00,,---,0.00,VWS V14.01,2013-04-28 06:57:00,
2013-04-28 00:58:00,50.5,12.1,29.94,SSE,151,5.8,5.8,21,0.00,,---,0.00,VWS V14.01,2013-04-28 06:58:00,
2013-04-28 01:00:00,50.7,12.2,29.94,West,271,3.6,4.0,21,0.00,,---,0.00,VWS V14.01,2013-04-28 07:00:00,
2013-04-28 01:01:00,50.9,12.4,29.94,ESE,103,3.1,4.0,21,0.00,,---,0.00,VWS V14.01,2013-04-28 07:01:00,
2013-04-28 01:02:00,50.9,12.4,29.94,NNW,340,3.1,4.0,21,0.00,,---,0.00,VWS V14.01,2013-04-28 07:02:00,
2013-04-28 01:04:00,50.9,12.4,29.94,WNW,300,0.0,4.0,21,0.00,,---,0.00,VWS V14.01,2013-04-28 07:04:00,
2013-04-28 01:05:00,51.1,12.5,29.94,WNW,300,0.0,4.0,21,0.00,,---,0.00,VWS V14.01,2013-04-28 07:05:00,
2013-04-28 01:06:00,50.9,12.4,29.94,WNW,300,0.0,4.0,21,0.00,,---,0.00,VWS V14.01,2013-04-28 07:06:00,
2013-04-28 01:07:00,50.9,12.4,29.94,WNW,300,0.0,4.0,21,0.00,,---,0.00,VWS V14.01,2013-04-28 07:07:00,
2013-04-28 01:09:00,50.7,12.2,29.94,WNW,300,0.0,4.0,21,0.00,,---,0.00,VWS V14.01,2013-04-28 07:09:00,
2013-04-28 01:10:00,50.5,12.1,29.94,WNW,300,0.0,4.0,21,0.00,,---,0.00,VWS V14.01,2013-04-28 07:10:00,
2013-04-28 01:11:00,50.5,12.1,29.94,WNW,300,0.0,4.0,21,0.00,,---,0.00,VWS V14.01,2013-04-28 07:11:00,
2013-04-28 01:12:00,50.5,12.1,29.94,NW,306,0.0,4.0,21,0.00,,---,0.00,VWS V14.01,2013-04-28 07:12:00,
2013-04-28 01:13:00,50.4,11.9,29.94,North,349,2.7,4.0,21,0.00,,---,0.00,VWS V14.01,2013-04-28 07:13:00,
2013-04-28 01:14:00,50.4,11.9,29.94,North,349,2.2,4.0,21,0.00,,---,0.00,VWS V14.01,2013-04-28 07:14:00,
2013-04-28 01:15:00,50.4,11.9,29.94,North,349,2.2,2.2,21,0.00,,---,0.00,VWS V14.01,2013-04-28 07:15:00,
2013-04-28 01:17:00,50.4,14.9,29.94,NNE,20,3.1,3.1,24,0.00,,---,0.00,VWS V14.01,2013-04-28 07:17:00,
2013-04-28 01:18:00,50.4,14.9,29.94,NE,42,4.0,4.0,24,0.00,,---,0.00,VWS V14.01,2013-04-28 07:18:00,
2013-04-28 01:19:00,50.2,16.6,29.94,ENE,68,2.7,4.0,26,0.00,,---,0.00,VWS V14.01,2013-04-28 07:19:00,
2013-04-28 01:20:00,50.2,16.6,29.94,NE,44,2.7,4.0,26,0.00,,---,0.00,VWS V14.01,2013-04-28 07:20:00,
2013-04-28 01:22:00,49.6,17.0,29.94,NNE,28,3.6,4.0,27,0.00,,---,0.00,VWS V14.01,2013-04-28 07:22:00,
2013-04-28 01:24:00,49.3,16.7,29.94,NNE,26,3.6,4.0,27,0.00,,---,0.00,VWS V14.01,2013-04-28 07:24:00,
2013-04-28 01:26:00,48.7,17.1,29.94,NE,36,2.2,4.0,28,0.00,,---,0.00,VWS V14.01,2013-04-28 07:26:00,
2013-04-28 01:27:00,48.7,17.1,29.94,NE,36,0.0,4.0,28,0.00,,---,0.00,VWS V14.01,2013-04-28 07:27:00,
2013-04-28 01:29:00,48.4,17.6,29.94,NNE,16,2.7,4.0,29,0.00,,---,0.00,VWS V14.01,2013-04-28 07:29:00,
2013-04-28 01:31:00,48.2,17.5,29.94,NNE,16,0.0,0.0,29,0.00,,---,0.00,VWS V14.01,2013-04-28 07:31:00,
2013-04-28 01:32:00,48.0,18.8,29.94,NNE,16,0.0,0.0,31,0.00,,---,0.00,VWS V14.01,2013-04-28 07:32:00,
2013-04-28 01:34:00,47.8,18.7,29.94,NNE,16,0.0,0.0,31,0.00,,---,0.00,VWS V14.01,2013-04-28 07:34:00,
2013-04-28 01:36:00,47.7,19.3,29.94,NNE,16,3.1,3.1,32,0.00,,---,0.00,VWS V14.01,2013-04-28 07:36:00,
2013-04-28 01:37:00,47.5,19.1,29.94,NNE,16,2.7,3.1,32,0.00,,---,0.00,VWS V14.01,2013-04-28 07:37:00,
2013-04-28 01:39:00,47.3,19.7,29.94,NNE,16,2.7,3.1,33,0.00,,---,0.00,VWS V14.01,2013-04-28 07:39:00,
2013-04-28 01:41:00,47.1,20.2,29.94,NNE,16,0.0,3.1,34,0.00,,---,0.00,VWS V14.01,2013-04-28 07:41:00,
2013-04-28 01:42:00,47.1,20.2,29.94,NNE,16,0.0,3.1,34,0.00,,---,0.00,VWS V14.01,2013-04-28 07:42:00,
2013-04-28 01:43:00,47.1,20.2,29.94,NNE,16,0.0,3.1,34,0.00,,---,0.00,VWS V14.01,2013-04-28 07:43:00,
2013-04-28 01:44:00,46.9,20.7,29.94,NNE,16,0.0,3.1,35,0.00,,---,0.00,VWS V14.01,2013-04-28 07:44:00,
2013-04-28 01:45:00,46.9,20.7,29.94,NNE,16,0.0,3.1,35,0.00,,---,0.00,VWS V14.01,2013-04-28 07:45:00,
2013-04-28 01:47:00,46.8,20.6,29.94,NNE,16,0.0,0.0,35,0.00,,---,0.00,VWS V14.01,2013-04-28 07:47:00,
2013-04-28 01:48:00,46.6,20.4,29.94,NNE,16,0.0,0.0,35,0.00,,---,0.00,VWS V14.01,2013-04-28 07:48:00,
2013-04-28 01:49:00,46.4,19.6,29.94,NNE,16,0.0,0.0,34,0.00,,---,0.00,VWS V14.01,2013-04-28 07:49:00,
2013-04-28 01:50:00,46.2,20.1,29.94,NNE,16,0.0,0.0,35,0.00,,---,0.00,VWS V14.01,2013-04-28 07:50:00,
2013-04-28 01:52:00,46.2,21.4,29.94,NNE,15,2.2,2.7,37,0.00,,---,0.00,VWS V14.01,2013-04-28 07:52:00,
2013-04-28 01:53:00,46.2,21.4,29.94,NNE,15,0.0,2.7,37,0.00,,---,0.00,VWS V14.01,2013-04-28 07:53:00,
2013-04-28 01:54:00,46.0,21.2,29.94,NNE,15,0.0,2.7,37,0.00,,---,0.00,VWS V14.01,2013-04-28 07:54:00,
2013-04-28 01:55:00,46.0,21.2,29.94,NNE,15,0.0,2.7,37,0.00,,---,0.00,VWS V14.01,2013-04-28 07:55:00,
2013-04-28 01:57:00,46.0,21.2,29.94,NNE,15,0.0,2.7,37,0.00,,---,0.00,VWS V14.01,2013-04-28 07:57:00,
2013-04-28 01:58:00,46.0,21.2,29.94,NNE,15,0.0,2.7,37,0.00,,---,0.00,VWS V14.01,2013-04-28 07:58:00,
2013-04-28 02:00:00,45.9,21.1,29.94,NE,39,0.0,2.7,37,0.00,,---,0.00,VWS V14.01,2013-04-28 08:00:00,
2013-04-28 02:03:00,46.0,21.2,29.94,East,86,2.2,2.7,37,0.00,,---,0.00,VWS V14.01,2013-04-28 08:03:00,
2013-04-28 02:05:00,46.0,21.2,29.94,East,86,0.0,2.7,37,0.00,,---,0.00,VWS V14.01,2013-04-28 08:05:00,
2013-04-28 02:08:00,46.0,21.2,29.94,East,86,0.0,2.7,37,0.00,,---,0.00,VWS V14.01,2013-04-28 08:08:00,
2013-04-28 02:10:00,46.0,21.2,29.94,East,86,0.0,2.7,37,0.00,,---,0.00,VWS V14.01,2013-04-28 08:10:00,
2013-04-28 02:11:00,46.0,21.2,29.94,East,86,0.0,2.7,37,0.00,,---,0.00,VWS V14.01,2013-04-28 08:11:00,
2013-04-28 02:13:00,46.0,20.6,29.94,East,86,0.0,2.7,36,0.00,,---,0.00,VWS V14.01,2013-04-28 08:13:00,
2013-04-28 02:14:00,46.0,21.2,29.94,NNE,12,3.1,3.1,37,0.00,,---,0.00,VWS V14.01,2013-04-28 08:14:00,
2013-04-28 02:15:00,45.9,21.1,29.94,North,9,2.2,2.2,37,0.00,,---,0.00,VWS V14.01,2013-04-28 08:15:00,
2013-04-28 02:16:00,45.9,21.1,29.91,North,9,2.7,2.7,37,0.00,,---,0.00,VWS V14.01,2013-04-28 08:16:00,
2013-04-28 02:18:00,45.7,20.9,29.91,North,9,2.7,3.1,37,0.00,,---,0.00,VWS V14.01,2013-04-28 08:18:00,
2013-04-28 02:19:00,45.9,21.7,29.91,North,0,3.1,3.6,38,0.00,,---,0.00,VWS V14.01,2013-04-28 08:19:00,
2013-04-28 02:20:00,45.9,21.7,29.91,North,0,0.0,3.6,38,0.00,,---,0.00,VWS V14.01,2013-04-28 08:20:00,
2013-04-28 02:22:00,46.0,21.9,29.91,North,0,0.0,3.6,38,0.00,,---,0.00,VWS V14.01,2013-04-28 08:22:00,
2013-04-28 02:23:00,46.2,22.0,29.91,North,0,0.0,3.6,38,0.00,,---,0.00,VWS V14.01,2013-04-28 08:23:00,
2013-04-28 02:24:00,46.2,22.0,29.91,North,0,0.0,3.6,38,0.00,,---,0.00,VWS V14.01,2013-04-28 08:24:00,
2013-04-28 02:25:00,46.0,21.9,29.91,North,0,2.7,3.6,38,0.00,,---,0.00,VWS V14.01,2013-04-28 08:25:00,
2013-04-28 02:28:00,46.0,21.9,29.91,NNW,342,3.6,3.6,38,0.00,,---,0.00,VWS V14.01,2013-04-28 08:28:00,
2013-04-28 02:29:00,46.0,21.9,29.91,NNW,342,0.0,3.6,38,0.00,,---,0.00,VWS V14.01,2013-04-28 08:29:00,
2013-04-28 02:30:00,46.0,21.9,29.91,NNW,342,0.0,3.6,38,0.00,,---,0.00,VWS V14.01,2013-04-28 08:30:00,
2013-04-28 02:31:00,46.0,21.9,29.94,NNW,341,2.2,2.7,38,0.00,,---,0.00,VWS V14.01,2013-04-28 08:31:00,
2013-04-28 02:33:00,46.0,21.9,29.94,NNW,340,2.2,3.6,38,0.00,,---,0.00,VWS V14.01,2013-04-28 08:33:00,
2013-04-28 02:34:00,46.0,21.9,29.94,NNW,331,2.7,3.6,38,0.00,,---,0.00,VWS V14.01,2013-04-28 08:34:00,
2013-04-28 02:35:00,46.0,21.9,29.94,North,353,4.0,4.0,38,0.00,,---,0.00,VWS V14.01,2013-04-28 08:35:00,
2013-04-28 02:36:00,46.0,21.9,29.94,North,353,3.6,4.9,38,0.00,,---,0.00,VWS V14.01,2013-04-28 08:36:00,
2013-04-28 02:38:00,46.2,22.0,29.94,NNW,343,3.1,4.9,38,0.00,,---,0.00,VWS V14.01,2013-04-28 08:38:00,
2013-04-28 02:39:00,46.4,21.6,29.94,NNW,335,3.6,4.9,37,0.00,,---,0.00,VWS V14.01,2013-04-28 08:39:00,
2013-04-28 02:40:00,46.4,21.6,29.94,NNW,345,2.7,4.9,37,0.00,,---,0.00,VWS V14.01,2013-04-28 08:40:00,
2013-04-28 02:41:00,46.6,21.7,29.94,NW,325,3.6,4.9,37,0.00,,---,0.00,VWS V14.01,2013-04-28 08:41:00,
2013-04-28 02:44:00,46.4,21.6,29.94,North,6,4.0,4.9,37,0.00,,---,0.00,VWS V14.01,2013-04-28 08:44:00,
2013-04-28 02:45:00,46.6,21.7,29.94,North,357,2.2,2.2,37,0.00,,---,0.00,VWS V14.01,2013-04-28 08:45:00,
2013-04-28 02:46:00,46.6,21.7,29.94,North,353,2.2,3.1,37,0.00,,---,0.00,VWS V14.01,2013-04-28 08:46:00,
2013-04-28 02:49:00,46.4,21.6,29.94,WNW,300,3.1,3.1,37,0.00,,---,0.00,VWS V14.01,2013-04-28 08:49:00,
2013-04-28 02:51:00,46.0,21.9,29.94,NW,324,3.6,4.0,38,0.00,,---,0.00,VWS V14.01,2013-04-28 08:51:00,
2013-04-28 02:54:00,45.9,21.7,29.94,NNW,333,4.9,4.9,38,0.00,,---,0.00,VWS V14.01,2013-04-28 08:54:00,
2013-04-28 02:56:00,46.0,21.9,29.94,NW,318,2.2,4.9,38,0.00,,---,0.00,VWS V14.01,2013-04-28 08:56:00,
2013-04-28 02:59:00,46.0,21.9,29.94,NW,318,2.2,4.9,38,0.00,,---,0.00,VWS V14.01,2013-04-28 08:59:00,
2013-04-28 03:01:00,46.0,21.9,29.94,NW,318,0.0,2.2,38,0.00,,---,0.00,VWS V14.01,2013-04-28 09:01:00,
2013-04-28 03:02:00,46.0,21.9,29.94,NW,318,2.2,2.2,38,0.00,,---,0.00,VWS V14.01,2013-04-28 09:02:00,
2013-04-28 03:04:00,45.9,21.7,29.94,West,272,2.2,3.1,38,0.00,,---,0.00,VWS V14.01,2013-04-28 09:04:00,
2013-04-28 03:07:00,45.5,21.4,29.94,West,272,0.0,3.1,38,0.00,,---,0.00,VWS V14.01,2013-04-28 09:07:00,
2013-04-28 03:09:00,45.1,21.1,29.94,West,272,0.0,3.1,38,0.00,,---,0.00,VWS V14.01,2013-04-28 09:09:00,
2013-04-28 03:10:00,45.1,21.1,29.94,West,272,2.2,3.1,38,0.00,,---,0.00,VWS V14.01,2013-04-28 09:10:00,
2013-04-28 03:12:00,44.8,20.7,29.94,West,272,0.0,3.1,38,0.00,,---,0.00,VWS V14.01,2013-04-28 09:12:00,
2013-04-28 03:14:00,44.6,20.6,29.94,West,272,0.0,3.1,38,0.00,,---,0.00,VWS V14.01,2013-04-28 09:14:00,
2013-04-28 03:15:00,44.6,20.6,29.94,West,272,0.0,3.1,38,0.00,,---,0.00,VWS V14.01,2013-04-28 09:15:00,
2013-04-28 03:17:00,44.4,20.4,29.94,WNW,284,0.0,2.2,38,0.00,,---,0.00,VWS V14.01,2013-04-28 09:17:00,
2013-04-28 03:18:00,44.4,21.0,29.94,WNW,284,0.0,2.2,39,0.00,,---,0.00,VWS V14.01,2013-04-28 09:18:00,
2013-04-28 03:20:00,44.4,21.0,29.94,WNW,284,2.7,2.7,39,0.00,,---,0.00,VWS V14.01,2013-04-28 09:20:00,
2013-04-28 03:21:00,44.6,20.6,29.94,WNW,284,0.0,2.7,38,0.00,,---,0.00,VWS V14.01,2013-04-28 09:21:00,
2013-04-28 03:22:00,44.6,20.6,29.94,WNW,284,0.0,2.7,38,0.00,,---,0.00,VWS V14.01,2013-04-28 09:22:00,
2013-04-28 03:23:00,44.6,20.6,29.94,WNW,284,0.0,2.7,38,0.00,,---,0.00,VWS V14.01,2013-04-28 09:23:00,
2013-04-28 03:25:00,44.6,20.6,29.94,WNW,284,2.2,2.7,38,0.00,,---,0.00,VWS V14.01,2013-04-28 09:25:00,
2013-04-28 03:26:00,44.4,21.0,29.94,WNW,284,0.0,2.7,39,0.00,,---,0.00,VWS V14.01,2013-04-28 09:26:00,
2013-04-28 03:27:00,44.2,20.9,29.94,WNW,284,0.0,2.7,39,0.00,,---,0.00,VWS V14.01,2013-04-28 09:27:00,
2013-04-28 03:28:00,44.1,20.7,29.94,WNW,284,0.0,2.7,39,0.00,,---,0.00,VWS V14.01,2013-04-28 09:28:00,
2013-04-28 03:30:00,43.9,20.5,29.94,WNW,284,0.0,0.0,39,0.00,,---,0.00,VWS V14.01,2013-04-28 09:30:00,
2013-04-28 03:31:00,43.7,20.4,29.94,WNW,284,0.0,0.0,39,0.00,,---,0.00,VWS V14.01,2013-04-28 09:31:00,
2013-04-28 03:32:00,43.5,20.2,29.94,WNW,284,0.0,0.0,39,0.00,,---,0.00,VWS V14.01,2013-04-28 09:32:00,
2013-04-28 03:33:00,43.5,20.2,29.94,WNW,284,0.0,0.0,39,0.00,,---,0.00,VWS V14.01,2013-04-28 09:33:00,
2013-04-28 03:36:00,43.3,20.6,29.94,WNW,284,0.0,2.2,40,0.00,,---,0.00,VWS V14.01,2013-04-28 09:36:00,
2013-04-28 03:37:00,43.2,20.5,29.94,WNW,284,0.0,2.2,40,0.00,,---,0.00,VWS V14.01,2013-04-28 09:37:00,
2013-04-28 03:38:00,43.2,20.5,29.94,WNW,284,0.0,2.2,40,0.00,,---,0.00,VWS V14.01,2013-04-28 09:38:00,
2013-04-28 03:41:00,43.2,20.5,29.94,WNW,284,0.0,2.2,40,0.00,,---,0.00,VWS V14.01,2013-04-28 09:41:00,
2013-04-28 03:42:00,43.2,20.5,29.94,WNW,284,0.0,2.2,40,0.00,,---,0.00,VWS V14.01,2013-04-28 09:42:00,
2013-04-28 03:43:00,43.2,20.5,29.94,WNW,284,0.0,2.2,40,0.00,,---,0.00,VWS V14.01,2013-04-28 09:43:00,
2013-04-28 03:46:00,43.2,20.5,29.94,WNW,284,0.0,2.7,40,0.00,,---,0.00,VWS V14.01,2013-04-28 09:46:00,
2013-04-28 03:47:00,43.2,21.1,29.94,WNW,284,0.0,2.7,41,0.00,,---,0.00,VWS V14.01,2013-04-28 09:47:00,
2013-04-28 03:48:00,43.2,21.1,29.94,WNW,284,2.2,2.7,41,0.00,,---,0.00,VWS V14.01,2013-04-28 09:48:00,
2013-04-28 03:51:00,43.0,20.9,29.94,WNW,284,0.0,2.7,41,0.00,,---,0.00,VWS V14.01,2013-04-28 09:51:00,
2013-04-28 03:52:00,43.0,20.9,29.94,WNW,284,0.0,2.7,41,0.00,,---,0.00,VWS V14.01,2013-04-28 09:52:00,
2013-04-28 03:53:00,42.8,20.8,29.94,WNW,284,0.0,2.7,41,0.00,,---,0.00,VWS V14.01,2013-04-28 09:53:00,
2013-04-28 03:54:00,42.8,20.8,29.94,WNW,284,0.0,2.7,41,0.00,,---,0.00,VWS V14.01,2013-04-28 09:54:00,
2013-04-28 03:56:00,43.0,20.9,29.94,WNW,284,0.0,2.7,41,0.00,,---,0.00,VWS V14.01,2013-04-28 09:56:00,
2013-04-28 03:57:00,43.0,20.9,29.94,WNW,284,2.7,2.7,41,0.00,,---,0.00,VWS V14.01,2013-04-28 09:57:00,
2013-04-28 03:58:00,43.2,21.1,29.94,WNW,287,2.7,2.7,41,0.00,,---,0.00,VWS V14.01,2013-04-28 09:58:00,
2013-04-28 03:59:00,43.2,21.1,29.94,WNW,287,0.0,2.7,41,0.00,,---,0.00,VWS V14.01,2013-04-28 09:59:00,
2013-04-28 04:01:00,43.5,21.4,29.94,WNW,293,0.0,3.1,41,0.00,,---,0.00,VWS V14.01,2013-04-28 10:01:00,
2013-04-28 04:02:00,43.7,21.6,29.94,WNW,293,0.0,3.1,41,0.00,,---,0.00,VWS V14.01,2013-04-28 10:02:00,
2013-04-28 04:04:00,43.7,21.6,29.94,WNW,293,0.0,3.1,41,0.00,,---,0.00,VWS V14.01,2013-04-28 10:04:00,
2013-04-28 04:06:00,43.7,21.6,29.94,WNW,293,0.0,3.1,41,0.00,,---,0.00,VWS V14.01,2013-04-28 10:06:00,
2013-04-28 04:07:00,43.5,20.8,29.94,WNW,293,0.0,3.1,40,0.00,,---,0.00,VWS V14.01,2013-04-28 10:07:00,
2013-04-28 04:09:00,43.5,20.8,29.94,WNW,285,3.1,3.1,40,0.00,,---,0.00,VWS V14.01,2013-04-28 10:09:00,
2013-04-28 04:11:00,43.5,21.4,29.94,West,276,0.0,3.6,41,0.00,,---,0.00,VWS V14.01,2013-04-28 10:11:00,
2013-04-28 04:12:00,43.5,20.8,29.94,West,276,0.0,3.6,40,0.00,,---,0.00,VWS V14.01,2013-04-28 10:12:00,
2013-04-28 04:14:00,43.5,20.8,29.94,West,276,2.2,3.6,40,0.00,,---,0.00,VWS V14.01,2013-04-28 10:14:00,
2013-04-28 04:16:00,43.5,20.8,29.94,West,276,0.0,2.7,40,0.00,,---,0.00,VWS V14.01,2013-04-28 10:16:00,
2013-04-28 04:17:00,43.5,20.8,29.94,West,276,0.0,2.7,40,0.00,,---,0.00,VWS V14.01,2013-04-28 10:17:00,
2013-04-28 04:19:00,43.5,20.8,29.94,West,276,0.0,2.7,40,0.00,,---,0.00,VWS V14.01,2013-04-28 10:19:00,
2013-04-28 04:20:00,43.5,20.8,29.94,West,276,2.2,2.7,40,0.00,,---,0.00,VWS V14.01,2013-04-28 10:20:00,
2013-04-28 04:21:00,43.5,20.8,29.94,West,276,0.0,2.7,40,0.00,,---,0.00,VWS V14.01,2013-04-28 10:21:00,
2013-04-28 04:22:00,43.5,20.8,29.94,West,280,2.7,2.7,40,0.00,,---,0.00,VWS V14.01,2013-04-28 10:22:00,
2013-04-28 04:23:00,43.5,20.8,29.94,WNW,282,0.0,2.7,40,0.00,,---,0.00,VWS V14.01,2013-04-28 10:23:00,
2013-04-28 04:25:00,43.7,21.0,29.94,WNW,282,2.7,2.7,40,0.00,,---,0.00,VWS V14.01,2013-04-28 10:25:00,
2013-04-28 04:26:00,43.9,21.1,29.94,WNW,282,2.7,2.7,40,0.00,,---,0.00,VWS V14.01,2013-04-28 10:26:00,
2013-04-28 04:27:00,43.9,21.1,29.94,WNW,282,2.2,2.7,40,0.00,,---,0.00,VWS V14.01,2013-04-28 10:27:00,
2013-04-28 04:28:00,43.9,20.5,29.94,WNW,282,2.7,2.7,39,0.00,,---,0.00,VWS V14.01,2013-04-28 10:28:00,
2013-04-28 04:30:00,44.1,20.7,29.94,SW,222,0.0,0.0,39,0.00,,---,0.00,VWS V14.01,2013-04-28 10:30:00,
2013-04-28 04:31:00,44.1,20.7,29.94,SW,222,0.0,0.0,39,0.00,,---,0.00,VWS V14.01,2013-04-28 10:31:00,
2013-04-28 04:32:00,44.2,20.9,29.94,SW,222,0.0,0.0,39,0.00,,---,0.00,VWS V14.01,2013-04-28 10:32:00,
2013-04-28 04:33:00,44.2,20.9,29.94,West,275,3.1,3.1,39,0.00,,---,0.00,VWS V14.01,2013-04-28 10:33:00,
2013-04-28 04:35:00,44.2,20.9,29.94,NW,309,3.1,3.1,39,0.00,,---,0.00,VWS V14.01,2013-04-28 10:35:00,
2013-04-28 04:37:00,44.6,20.6,29.94,NNE,15,4.0,4.9,38,0.00,,---,0.00,VWS V14.01,2013-04-28 10:37:00,
2013-04-28 04:38:00,44.8,20.7,29.94,North,353,2.2,4.9,38,0.00,,---,0.00,VWS V14.01,2013-04-28 10:38:00,
2013-04-28 04:40:00,45.3,21.2,29.94,North,0,3.6,4.9,38,0.00,,---,0.00,VWS V14.01,2013-04-28 10:40:00,
2013-04-28 04:42:00,45.7,21.5,29.94,NNE,21,3.6,5.4,38,0.00,,---,0.00,VWS V14.01,2013-04-28 10:42:00,
2013-04-28 04:43:00,45.9,21.7,29.94,North,4,4.0,5.4,38,0.00,,---,0.00,VWS V14.01,2013-04-28 10:43:00,
2013-04-28 04:45:00,46.0,21.9,29.94,North,10,3.1,3.1,38,0.00,,---,0.00,VWS V14.01,2013-04-28 10:45:00,
2013-04-28 04:47:00,46.0,21.9,29.94,North,357,2.2,3.6,38,0.00,,---,0.00,VWS V14.01,2013-04-28 10:47:00,
2013-04-28 04:48:00,46.0,21.9,29.94,North,357,2.2,3.6,38,0.00,,---,0.00,VWS V14.01,2013-04-28 10:48:00,
2013-04-28 04:50:00,45.9,21.7,29.94,North,357,0.0,3.6,38,0.00,,---,0.00,VWS V14.01,2013-04-28 10:50:00,
2013-04-28 04:51:00,45.9,21.7,29.94,North,357,0.0,3.6,38,0.00,,---,0.00,VWS V14.01,2013-04-28 10:51:00,
2013-04-28 04:52:00,45.7,21.5,29.94,North,357,0.0,3.6,38,0.00,,---,0.00,VWS V14.01,2013-04-28 10:52:00,
2013-04-28 04:53:00,45.7,21.5,29.94,North,5,2.2,3.6,38,0.00,,---,0.00,VWS V14.01,2013-04-28 10:53:00,
2013-04-28 04:55:00,45.5,21.4,29.94,North,357,0.0,3.6,38,0.00,,---,0.00,VWS V14.01,2013-04-28 10:55:00,
2013-04-28 04:56:00,45.3,21.2,29.94,North,357,0.0,3.6,38,0.00,,---,0.00,VWS V14.01,2013-04-28 10:56:00,
2013-04-28 04:57:00,45.3,21.2,29.94,North,357,3.1,3.6,38,0.00,,---,0.00,VWS V14.01,2013-04-28 10:57:00,
2013-04-28 04:58:00,45.3,21.2,29.94,North,357,3.1,3.6,38,0.00,,---,0.00,VWS V14.01,2013-04-28 10:58:00,
2013-04-28 05:00:00,45.3,21.2,29.94,North,357,0.0,0.0,38,0.00,,---,0.00,VWS V14.01,2013-04-28 11:00:00,
2013-04-28 05:01:00,45.3,21.2,29.94,North,357,0.0,0.0,38,0.00,,---,0.00,VWS V14.01,2013-04-28 11:01:00,
2013-04-28 05:03:00,45.3,21.8,29.94,North,357,2.2,3.1,39,0.00,,---,0.00,VWS V14.01,2013-04-28 11:03:00,
2013-04-28 05:04:00,45.3,21.8,29.94,North,357,0.0,3.1,39,0.00,,---,0.00,VWS V14.01,2013-04-28 11:04:00,
2013-04-28 05:06:00,45.3,21.8,29.94,North,357,2.2,3.1,39,0.00,,---,0.00,VWS V14.01,2013-04-28 11:06:00,
2013-04-28 05:08:00,45.3,21.8,29.94,NNW,348,0.0,3.1,39,0.00,,---,0.00,VWS V14.01,2013-04-28 11:08:00,
2013-04-28 05:09:00,45.3,21.8,29.94,NNW,348,0.0,3.1,39,0.00,,---,0.00,VWS V14.01,2013-04-28 11:09:00,
2013-04-28 05:11:00,45.3,21.8,29.94,NNW,348,2.2,3.1,39,0.00,,---,0.00,VWS V14.01,2013-04-28 11:11:00,
2013-04-28 05:13:00,45.3,21.8,29.94,NNW,330,3.6,3.6,39,0.00,,---,0.00,VWS V14.01,2013-04-28 11:13:00,
2013-04-28 05:14:00,45.3,21.8,29.94,NNW,330,2.7,3.6,39,0.00,,---,0.00,VWS V14.01,2013-04-28 11:14:00,
2013-04-28 05:16:00,45.3,21.8,29.94,NNW,342,3.1,5.4,39,0.00,,---,0.00,VWS V14.01,2013-04-28 11:16:00,
2013-04-28 05:18:00,45.5,22.0,29.94,NW,326,3.1,5.4,39,0.00,,---,0.00,VWS V14.01,2013-04-28 11:18:00,
2013-04-28 05:19:00,45.5,22.0,29.94,NW,323,4.0,5.4,39,0.00,,---,0.00,VWS V14.01,2013-04-28 11:19:00,
2013-04-28 05:21:00,45.5,22.0,29.94,NW,320,3.6,5.4,39,0.00,,---,0.00,VWS V14.01,2013-04-28 11:21:00,
2013-04-28 05:22:00,45.5,22.0,29.94,NW,313,3.1,5.4,39,0.00,,---,0.00,VWS V14.01,2013-04-28 11:22:00,
2013-04-28 05:23:00,45.7,21.5,29.94,NW,319,2.7,5.4,38,0.00,,---,0.00,VWS V14.01,2013-04-28 11:23:00,
2013-04-28 05:24:00,45.7,21.5,29.94,NW,319,2.2,5.4,38,0.00,,---,0.00,VWS V14.01,2013-04-28 11:24:00,
2013-04-28 05:25:00,45.9,21.7,29.94,NW,316,3.1,5.4,38,0.00,,---,0.00,VWS V14.01,2013-04-28 11:25:00,
2013-04-28 05:26:00,45.9,21.7,29.94,NW,317,2.7,5.4,38,0.00,,---,0.00,VWS V14.01,2013-04-28 11:26:00,
2013-04-28 05:28:00,45.9,21.7,29.94,NW,316,2.2,5.4,38,0.00,,---,0.00,VWS V14.01,2013-04-28 11:28:00,
2013-04-28 05:29:00,45.9,21.7,29.94,NW,316,0.0,5.4,38,0.00,,---,0.00,VWS V14.01,2013-04-28 11:29:00,
2013-04-28 05:30:00,45.9,21.7,29.94,NW,322,3.6,4.0,38,0.00,,---,0.00,VWS V14.01,2013-04-28 11:30:00,
2013-04-28 05:32:00,46.0,21.9,29.94,NW,319,3.1,4.0,38,0.00,,---,0.00,VWS V14.01,2013-04-28 11:32:00,
2013-04-28 05:33:00,46.0,21.9,29.94,NW,319,2.7,4.0,38,0.00,,---,0.00,VWS V14.01,2013-04-28 11:33:00,
2013-04-28 05:34:00,46.0,21.9,29.94,NW,315,3.1,4.0,38,0.00,,---,0.00,VWS V14.01,2013-04-28 11:34:00,
2013-04-28 05:35:00,45.9,21.7,29.94,NW,315,2.2,4.0,38,0.00,,---,0.00,VWS V14.01,2013-04-28 11:35:00,
2013-04-28 05:36:00,45.9,21.7,29.94,NW,315,2.2,4.0,38,0.00,,---,0.00,VWS V14.01,2013-04-28 11:36:00,
2013-04-28 05:37:00,45.9,21.7,29.94,NNW,338,2.7,4.0,38,0.00,,---,0.00,VWS V14.01,2013-04-28 11:37:00,
2013-04-28 05:38:00,45.9,21.7,29.94,NNW,346,3.6,4.0,38,0.00,,---,0.00,VWS V14.01,2013-04-28 11:38:00,
2013-04-28 05:39:00,45.9,21.7,29.94,NNW,341,2.7,4.0,38,0.00,,---,0.00,VWS V14.01,2013-04-28 11:39:00,
2013-04-28 05:40:00,45.9,21.7,29.94,NW,314,3.1,4.0,38,0.00,,---,0.00,VWS V14.01,2013-04-28 11:40:00,
2013-04-28 05:41:00,45.9,21.7,29.94,NNW,344,2.7,4.0,38,0.00,,---,0.00,VWS V14.01,2013-04-28 11:41:00,
2013-04-28 05:42:00,45.9,21.7,29.94,NNW,348,2.7,4.0,38,0.00,,---,0.00,VWS V14.01,2013-04-28 11:42:00,
2013-04-28 05:43:00,45.9,21.7,29.94,NNW,330,2.7,4.0,38,0.00,,---,0.00,VWS V14.01,2013-04-28 11:43:00,
2013-04-28 05:44:00,45.9,21.7,29.94,NW,325,2.2,4.0,38,0.00,,---,0.00,VWS V14.01,2013-04-28 11:44:00,
2013-04-28 05:45:00,46.0,21.9,29.94,NW,325,0.0,0.0,38,0.00,,---,0.00,VWS V14.01,2013-04-28 11:45:00,
2013-04-28 05:46:00,46.0,21.9,29.94,North,357,3.1,3.6,38,0.00,,---,0.00,VWS V14.01,2013-04-28 11:46:00,
2013-04-28 05:47:00,46.0,21.9,29.94,North,357,0.0,3.6,38,0.00,,---,0.00,VWS V14.01,2013-04-28 11:47:00,
2013-04-28 05:48:00,46.0,21.9,29.94,North,3,0.0,3.6,38,0.00,,---,0.00,VWS V14.01,2013-04-28 11:48:00,
2013-04-28 05:50:00,45.9,21.7,29.94,North,3,0.0,3.6,38,0.00,,---,0.00,VWS V14.01,2013-04-28 11:50:00,
2013-04-28 05:51:00,46.0,21.9,29.94,North,11,0.0,3.6,38,0.00,,---,0.00,VWS V14.01,2013-04-28 11:51:00,
2013-04-28 05:53:00,45.9,21.7,29.94,North,11,0.0,3.6,38,0.00,,---,0.00,VWS V14.01,2013-04-28 11:53:00,
2013-04-28 05:54:00,45.9,21.7,29.94,NNE,15,0.0,3.6,38,0.00,,---,0.00,VWS V14.01,2013-04-28 11:54:00,
2013-04-28 05:55:00,45.9,21.7,29.94,NNE,15,0.0,3.6,38,0.00,,---,0.00,VWS V14.01,2013-04-28 11:55:00,
2013-04-28 05:57:00,45.7,21.5,29.94,NNE,15,0.0,3.6,38,0.00,,---,0.00,VWS V14.01,2013-04-28 11:57:00,
2013-04-28 05:58:00,45.5,21.4,29.94,NNE,15,0.0,3.6,38,0.00,,---,0.00,VWS V14.01,2013-04-28 11:58:00,
2013-04-28 05:59:00,45.5,21.4,29.94,NNE,15,0.0,3.6,38,0.00,,---,0.00,VWS V14.01,2013-04-28 11:59:00,
2013-04-28 06:00:00,45.5,21.4,29.94,NNE,12,3.1,3.1,38,0.00,,---,0.00,VWS V14.01,2013-04-28 12:00:00,
2013-04-28 06:02:00,45.3,21.2,29.94,North,0,2.2,3.1,38,0.00,,---,0.00,VWS V14.01,2013-04-28 12:02:00,
2013-04-28 06:03:00,45.3,21.2,29.94,North,0,0.0,3.1,38,0.00,,---,0.00,VWS V14.01,2013-04-28 12:03:00,
2013-04-28 06:04:00,45.3,21.2,29.94,North,0,0.0,3.1,38,0.00,,---,0.00,VWS V14.01,2013-04-28 12:04:00,
2013-04-28 06:05:00,45.1,21.1,29.94,North,0,0.0,3.1,38,0.00,,---,0.00,VWS V14.01,2013-04-28 12:05:00,
2013-04-28 06:07:00,45.1,21.1,29.94,North,0,0.0,3.1,38,0.00,,---,0.00,VWS V14.01,2013-04-28 12:07:00,
2013-04-28 06:08:00,45.0,20.9,29.94,North,0,0.0,3.1,38,0.00,,---,0.00,VWS V14.01,2013-04-28 12:08:00,
2013-04-28 06:09:00,45.0,20.9,29.94,North,0,0.0,3.1,38,0.00,,---,0.00,VWS V14.01,2013-04-28 12:09:00,
2013-04-28 06:11:00,45.0,21.5,29.94,North,0,0.0,3.1,39,0.00,,---,0.00,VWS V14.01,2013-04-28 12:11:00,
2013-04-28 06:13:00,45.0,21.5,29.94,North,1,2.2,3.1,39,0.00,,---,0.00,VWS V14.01,2013-04-28 12:13:00,
2013-04-28 06:14:00,44.8,21.4,29.94,North,1,0.0,3.1,39,0.00,,---,0.00,VWS V14.01,2013-04-28 12:14:00,
2013-04-28 06:16:00,44.8,21.4,29.94,North,1,0.0,0.0,39,0.00,,---,0.00,VWS V14.01,2013-04-28 12:16:00,
2013-04-28 06:18:00,44.8,21.4,29.94,North,1,0.0,0.0,39,0.00,,---,0.00,VWS V14.01,2013-04-28 12:18:00,
2013-04-28 06:19:00,44.8,21.4,29.94,NNE,16,0.0,0.0,39,0.00,,---,0.00,VWS V14.01,2013-04-28 12:19:00,
2013-04-28 06:21:00,44.8,21.4,29.94,NNE,16,0.0,0.0,39,0.00,,---,0.00,VWS V14.01,2013-04-28 12:21:00,
2013-04-28 06:23:00,44.8,21.4,29.94,NNE,16,0.0,0.0,39,0.00,,---,0.00,VWS V14.01,2013-04-28 12:23:00,
2013-04-28 06:24:00,44.8,21.4,29.94,NNE,16,0.0,0.0,39,0.00,,---,0.00,VWS V14.01,2013-04-28 12:24:00,
2013-04-28 06:26:00,44.6,21.2,29.94,NNE,16,0.0,0.0,39,0.00,,---,0.00,VWS V14.01,2013-04-28 12:26:00,
2013-04-28 06:27:00,44.6,21.2,29.94,NNE,16,0.0,0.0,39,0.00,,---,0.00,VWS V14.01,2013-04-28 12:27:00,
2013-04-28 06:29:00,44.6,21.2,29.94,NNE,16,0.0,0.0,39,0.00,,---,0.00,VWS V14.01,2013-04-28 12:29:00,
2013-04-28 06:31:00,44.4,21.0,29.94,NNE,16,0.0,0.0,39,0.00,,---,0.00,VWS V14.01,2013-04-28 12:31:00,
2013-04-28 06:32:00,44.2,20.9,29.94,NNE,16,0.0,0.0,39,0.00,,---,0.00,VWS V14.01,2013-04-28 12:32:00,
2013-04-28 06:34:00,44.2,20.9,29.94,NNE,16,0.0,0.0,39,0.00,,---,0.00,VWS V14.01,2013-04-28 12:34:00,
2013-04-28 06:36:00,44.2,21.5,29.94,NNE,16,0.0,0.0,40,0.00,,---,0.00,VWS V14.01,2013-04-28 12:36:00,
2013-04-28 06:38:00,44.2,21.5,29.94,NNE,16,0.0,0.0,40,0.00,,---,0.00,VWS V14.01,2013-04-28 12:38:00,
2013-04-28 06:39:00,44.1,21.3,29.94,NNE,16,0.0,0.0,40,0.00,,---,0.00,VWS V14.01,2013-04-28 12:39:00,
2013-04-28 06:40:00,44.1,21.3,29.94,NNE,16,0.0,0.0,40,0.00,,---,0.00,VWS V14.01,2013-04-28 12:40:00,
2013-04-28 06:41:00,44.1,21.3,29.94,NNE,16,0.0,0.0,40,0.00,,---,0.00,VWS V14.01,2013-04-28 12:41:00,
2013-04-28 06:43:00,44.1,21.3,29.94,NNE,16,0.0,0.0,40,0.00,,---,0.00,VWS V14.01,2013-04-28 12:43:00,
2013-04-28 06:44:00,44.1,21.3,29.94,NNE,16,0.0,0.0,40,0.00,,---,0.00,VWS V14.01,2013-04-28 12:44:00,
2013-04-28 06:45:00,44.1,21.3,29.94,NNE,16,0.0,0.0,40,0.00,,---,0.00,VWS V14.01,2013-04-28 12:45:00,
2013-04-28 06:46:00,44.2,21.5,29.94,NNE,16,0.0,0.0,40,0.00,,---,0.00,VWS V14.01,2013-04-28 12:46:00,
2013-04-28 06:48:00,44.4,21.6,29.94,NNE,16,0.0,0.0,40,0.00,,---,0.00,VWS V14.01,2013-04-28 12:48:00,
2013-04-28 06:49:00,44.4,21.6,29.94,NNE,16,0.0,0.0,40,0.00,,---,0.00,VWS V14.01,2013-04-28 12:49:00,
2013-04-28 06:51:00,44.6,21.2,29.94,NNE,16,0.0,0.0,39,0.00,,---,0.00,VWS V14.01,2013-04-28 12:51:00,
2013-04-28 06:53:00,44.8,21.4,29.94,NNE,16,0.0,0.0,39,0.00,,---,0.00,VWS V14.01,2013-04-28 12:53:00,
2013-04-28 06:54:00,44.8,21.4,29.94,NNE,17,0.0,0.0,39,0.00,,---,0.00,VWS V14.01,2013-04-28 12:54:00,
2013-04-28 06:56:00,44.8,21.4,29.94,NNE,17,0.0,0.0,39,0.00,,---,0.00,VWS V14.01,2013-04-28 12:56:00,
2013-04-28 06:58:00,45.0,21.5,29.94,NNE,16,3.1,3.1,39,0.00,,---,0.00,VWS V14.01,2013-04-28 12:58:00,
2013-04-28 06:59:00,45.0,21.5,29.94,NNE,17,3.1,3.1,39,0.00,,---,0.00,VWS V14.01,2013-04-28 12:59:00,
2013-04-28 07:00:00,45.0,21.5,29.94,NNE,17,2.7,3.1,39,0.00,,---,0.00,VWS V14.01,2013-04-28 13:00:00,
2013-04-28 07:01:00,45.0,21.5,29.94,NNE,17,3.1,3.1,39,0.00,,---,0.00,VWS V14.01,2013-04-28 13:01:00,
2013-04-28 07:03:00,45.0,21.5,29.94,NNE,17,3.1,3.6,39,0.00,,---,0.00,VWS V14.01,2013-04-28 13:03:00,
2013-04-28 07:04:00,45.0,21.5,29.94,NNE,17,3.1,3.6,39,0.00,,---,0.00,VWS V14.01,2013-04-28 13:04:00,
2013-04-28 07:05:00,45.0,21.5,29.94,NNE,18,3.1,3.6,39,0.00,,---,0.00,VWS V14.01,2013-04-28 13:05:00,
2013-04-28 07:06:00,45.0,21.5,29.94,NNE,18,2.2,3.6,39,0.00,,---,0.00,VWS V14.01,2013-04-28 13:06:00,
2013-04-28 07:08:00,45.1,21.7,29.94,NNE,18,0.0,3.6,39,0.00,,---,0.00,VWS V14.01,2013-04-28 13:08:00,
2013-04-28 07:09:00,45.1,21.7,29.94,NNE,18,0.0,3.6,39,0.00,,---,0.00,VWS V14.01,2013-04-28 13:09:00,
2013-04-28 07:10:00,45.1,21.7,29.94,NNE,18,0.0,3.6,39,0.00,,---,0.00,VWS V14.01,2013-04-28 13:10:00,
2013-04-28 07:11:00,45.1,21.7,29.94,NNE,18,0.0,3.6,39,0.00,,---,0.00,VWS V14.01,2013-04-28 13:11:00,
2013-04-28 07:14:00,45.0,21.5,29.94,NNE,18,0.0,3.6,39,0.00,,---,0.00,VWS V14.01,2013-04-28 13:14:00,
2013-04-28 07:15:00,45.0,21.5,29.94,NNE,18,0.0,3.6,39,0.00,,---,0.00,VWS V14.01,2013-04-28 13:15:00,
2013-04-28 07:17:00,45.0,21.5,29.94,NNE,18,0.0,0.0,39,0.00,,---,0.00,VWS V14.01,2013-04-28 13:17:00,
2013-04-28 07:19:00,44.8,21.4,29.94,NNE,18,0.0,2.7,39,0.00,,---,0.00,VWS V14.01,2013-04-28 13:19:00,
2013-04-28 07:20:00,44.8,21.4,29.94,NNE,18,0.0,2.7,39,0.00,,---,0.00,VWS V14.01,2013-04-28 13:20:00,
2013-04-28 07:22:00,44.8,21.4,29.94,NNE,18,0.0,2.7,39,0.00,,---,0.00,VWS V14.01,2013-04-28 13:22:00,
2013-04-28 07:24:00,44.8,21.4,29.94,NNE,18,0.0,2.7,39,0.00,,---,0.00,VWS V14.01,2013-04-28 13:24:00,
2013-04-28 07:25:00,44.8,21.4,29.94,NNE,18,0.0,2.7,39,0.00,,---,0.00,VWS V14.01,2013-04-28 13:25:00,
2013-04-28 07:27:00,44.8,21.4,29.94,NNE,18,0.0,2.7,39,0.00,,---,0.00,VWS V14.01,2013-04-28 13:27:00,
2013-04-28 07:29:00,44.8,21.4,29.94,NNE,21,0.0,2.7,39,0.00,,---,0.00,VWS V14.01,2013-04-28 13:29:00,
2013-04-28 07:31:00,44.8,22.0,29.94,NNE,21,0.0,0.0,40,0.00,,---,0.00,VWS V14.01,2013-04-28 13:31:00,
2013-04-28 07:32:00,44.8,22.0,29.94,NNE,21,0.0,0.0,40,0.00,,---,0.00,VWS V14.01,2013-04-28 13:32:00,
2013-04-28 07:34:00,44.6,21.8,29.94,NNE,21,0.0,0.0,40,0.00,,---,0.00,VWS V14.01,2013-04-28 13:34:00,
2013-04-28 07:36:00,44.6,22.4,29.94,NNE,15,0.0,0.0,41,0.00,,---,0.00,VWS V14.01,2013-04-28 13:36:00,
2013-04-28 07:37:00,44.6,22.4,29.94,North,7,0.0,0.0,41,0.00,,---,0.00,VWS V14.01,2013-04-28 13:37:00,
2013-04-28 07:40:00,44.4,22.2,29.94,North,7,0.0,0.0,41,0.00,,---,0.00,VWS V14.01,2013-04-28 13:40:00,
2013-04-28 07:41:00,44.4,22.2,29.94,North,7,0.0,0.0,41,0.00,,---,0.00,VWS V14.01,2013-04-28 13:41:00,
2013-04-28 07:42:00,44.4,22.2,29.94,North,7,0.0,0.0,41,0.00,,---,0.00,VWS V14.01,2013-04-28 13:42:00,
2013-04-28 07:45:00,44.6,21.8,29.94,North,7,0.0,0.0,40,0.00,,---,0.00,VWS V14.01,2013-04-28 13:45:00,
2013-04-28 07:46:00,44.6,21.8,29.94,North,7,0.0,0.0,40,0.00,,---,0.00,VWS V14.01,2013-04-28 13:46:00,
2013-04-28 07:47:00,44.6,21.8,29.94,North,7,0.0,0.0,40,0.00,,---,0.00,VWS V14.01,2013-04-28 13:47:00,
2013-04-28 07:48:00,44.6,21.8,29.94,North,7,0.0,0.0,40,0.00,,---,0.00,VWS V14.01,2013-04-28 13:48:00,
2013-04-28 07:50:00,44.8,22.5,29.94,North,7,0.0,0.0,41,0.00,,---,0.00,VWS V14.01,2013-04-28 13:50:00,
2013-04-28 07:51:00,44.8,22.5,29.94,North,6,0.0,0.0,41,0.00,,---,0.00,VWS V14.01,2013-04-28 13:51:00,
2013-04-28 07:52:00,44.8,23.1,29.94,North,6,0.0,0.0,42,0.00,,---,0.00,VWS V14.01,2013-04-28 13:52:00,
2013-04-28 07:53:00,44.8,23.1,29.94,North,6,0.0,0.0,42,0.00,,---,0.00,VWS V14.01,2013-04-28 13:53:00,
2013-04-28 07:55:00,44.8,23.1,29.94,North,6,0.0,0.0,42,0.00,,---,0.00,VWS V14.01,2013-04-28 13:55:00,
2013-04-28 07:56:00,44.8,22.5,29.94,North,6,0.0,0.0,41,0.00,,---,0.00,VWS V14.01,2013-04-28 13:56:00,
2013-04-28 07:58:00,45.0,22.7,29.94,North,6,0.0,0.0,41,0.00,,---,0.00,VWS V14.01,2013-04-28 13:58:00,
2013-04-28 08:01:00,45.1,22.9,29.94,North,5,0.0,0.0,41,0.00,,---,0.00,VWS V14.01,2013-04-28 14:01:00,
2013-04-28 08:03:00,45.1,22.9,29.94,North,6,0.0,0.0,41,0.00,,---,0.00,VWS V14.01,2013-04-28 14:03:00,
2013-04-28 08:06:00,45.3,23.0,29.94,North,5,0.0,0.0,41,0.00,,---,0.00,VWS V14.01,2013-04-28 14:06:00,
2013-04-28 08:07:00,45.3,23.0,29.94,North,5,0.0,0.0,41,0.00,,---,0.00,VWS V14.01,2013-04-28 14:07:00,
2013-04-28 08:08:00,45.3,23.0,29.94,North,5,0.0,0.0,41,0.00,,---,0.00,VWS V14.01,2013-04-28 14:08:00,
2013-04-28 08:11:00,45.5,23.2,29.94,North,6,0.0,0.0,41,0.00,,---,0.00,VWS V14.01,2013-04-28 14:11:00,
2013-04-28 08:13:00,45.5,23.2,29.94,North,6,0.0,0.0,41,0.00,,---,0.00,VWS V14.01,2013-04-28 14:13:00,
2013-04-28 08:16:00,45.7,23.4,29.94,North,5,0.0,0.0,41,0.00,,---,0.00,VWS V14.01,2013-04-28 14:16:00,
2013-04-28 08:18:00,45.9,23.5,29.94,North,5,0.0,0.0,41,0.00,,---,0.00,VWS V14.01,2013-04-28 14:18:00,
2013-04-28 08:19:00,45.9,23.5,29.94,North,6,0.0,0.0,41,0.00,,---,0.00,VWS V14.01,2013-04-28 14:19:00,
2013-04-28 08:21:00,46.0,23.7,29.94,North,5,0.0,0.0,41,0.00,,---,0.00,VWS V14.01,2013-04-28 14:21:00,
2013-04-28 08:22:00,46.0,23.7,29.94,North,5,0.0,0.0,41,0.00,,---,0.00,VWS V14.01,2013-04-28 14:22:00,
2013-04-28 08:23:00,46.0,23.7,29.94,North,5,0.0,0.0,41,0.00,,---,0.00,VWS V14.01,2013-04-28 14:23:00,
2013-04-28 08:24:00,46.0,23.7,29.94,North,6,0.0,0.0,41,0.00,,---,0.00,VWS V14.01,2013-04-28 14:24:00,
2013-04-28 08:27:00,46.2,23.2,29.94,North,6,0.0,0.0,40,0.00,,---,0.00,VWS V14.01,2013-04-28 14:27:00,
2013-04-28 08:28:00,46.4,23.4,29.94,North,5,0.0,0.0,40,0.00,,---,0.00,VWS V14.01,2013-04-28 14:28:00,
2013-04-28 08:29:00,46.4,23.4,29.94,North,6,0.0,0.0,40,0.00,,---,0.00,VWS V14.01,2013-04-28 14:29:00,
2013-04-28 08:32:00,46.8,23.7,29.94,North,5,0.0,0.0,40,0.00,,---,0.00,VWS V14.01,2013-04-28 14:32:00,
2013-04-28 08:33:00,46.8,23.7,29.94,North,6,0.0,0.0,40,0.00,,---,0.00,VWS V14.01,2013-04-28 14:33:00,
2013-04-28 08:34:00,46.9,23.9,29.94,North,5,2.2,2.2,40,0.00,,---,0.00,VWS V14.01,2013-04-28 14:34:00,
2013-04-28 08:37:00,46.9,23.9,29.94,North,5,0.0,2.2,40,0.00,,---,0.00,VWS V14.01,2013-04-28 14:37:00,
2013-04-28 08:38:00,47.1,24.1,29.94,North,5,0.0,2.2,40,0.00,,---,0.00,VWS V14.01,2013-04-28 14:38:00,
2013-04-28 08:39:00,47.1,24.1,29.94,North,5,0.0,2.2,40,0.00,,---,0.00,VWS V14.01,2013-04-28 14:39:00,
2013-04-28 08:40:00,47.1,24.1,29.94,North,5,0.0,2.2,40,0.00,,---,0.00,VWS V14.01,2013-04-28 14:40:00,
2013-04-28 08:42:00,47.3,24.2,29.94,North,5,0.0,2.2,40,0.00,,---,0.00,VWS V14.01,2013-04-28 14:42:00,
2013-04-28 08:44:00,47.3,24.2,29.94,North,5,0.0,2.2,40,0.00,,---,0.00,VWS V14.01,2013-04-28 14:44:00,
2013-04-28 08:45:00,47.5,24.4,29.94,North,10,0.0,2.2,40,0.00,,---,0.00,VWS V14.01,2013-04-28 14:45:00,
2013-04-28 08:47:00,47.7,24.5,29.94,NNE,12,0.0,0.0,40,0.00,,---,0.00,VWS V14.01,2013-04-28 14:47:00,
2013-04-28 08:49:00,47.7,24.5,29.94,NNE,13,0.0,0.0,40,0.00,,---,0.00,VWS V14.01,2013-04-28 14:49:00,
2013-04-28 08:50:00,47.8,24.7,29.94,NNE,16,0.0,0.0,40,0.00,,---,0.00,VWS V14.01,2013-04-28 14:50:00,
2013-04-28 08:53:00,48.0,24.3,29.94,NNE,16,0.0,0.0,39,0.00,,---,0.00,VWS V14.01,2013-04-28 14:53:00,
2013-04-28 08:54:00,48.0,24.3,29.94,NNE,18,0.0,0.0,39,0.00,,---,0.00,VWS V14.01,2013-04-28 14:54:00,
2013-04-28 08:55:00,48.0,24.3,29.94,NNE,18,0.0,0.0,39,0.00,,---,0.00,VWS V14.01,2013-04-28 14:55:00,
2013-04-28 08:58:00,48.2,23.8,29.94,NNE,18,0.0,0.0,38,0.00,,---,0.00,VWS V14.01,2013-04-28 14:58:00,
2013-04-28 08:59:00,48.2,23.8,29.94,NNE,18,0.0,0.0,38,0.00,,---,0.00,VWS V14.01,2013-04-28 14:59:00,
2013-04-28 09:00:00,48.2,23.8,29.94,NNE,18,0.0,0.0,38,0.00,,---,0.00,VWS V14.01,2013-04-28 15:00:00,
2013-04-28 09:03:00,48.0,23.6,29.94,NNE,18,0.0,0.0,38,0.00,,---,0.00,VWS V14.01,2013-04-28 15:03:00,
2013-04-28 09:04:00,48.0,23.6,29.94,NNE,18,0.0,0.0,38,0.00,,---,0.00,VWS V14.01,2013-04-28 15:04:00,
2013-04-28 09:05:00,48.0,23.6,29.94,NNE,18,0.0,0.0,38,0.00,,---,0.00,VWS V14.01,2013-04-28 15:05:00,
2013-04-28 09:06:00,48.0,23.6,29.94,NNE,18,0.0,0.0,38,0.00,,---,0.00,VWS V14.01,2013-04-28 15:06:00,
2013-04-28 09:08:00,47.8,23.5,29.94,NNE,18,0.0,0.0,38,0.00,,---,0.00,VWS V14.01,2013-04-28 15:08:00,
2013-04-28 09:10:00,47.8,23.5,29.94,NNE,18,0.0,0.0,38,0.00,,---,0.00,VWS V14.01,2013-04-28 15:10:00,
2013-04-28 09:11:00,47.7,23.3,29.94,NNE,18,0.0,0.0,38,0.00,,---,0.00,VWS V14.01,2013-04-28 15:11:00,
2013-04-28 09:14:00,47.5,23.2,29.94,NNE,18,2.7,2.7,38,0.00,,---,0.00,VWS V14.01,2013-04-28 15:14:00,
2013-04-28 09:15:00,47.3,23.0,29.94,NNE,18,0.0,0.0,38,0.00,,---,0.00,VWS V14.01,2013-04-28 15:15:00,
2013-04-28 09:17:00,47.3,23.0,29.94,NNE,18,0.0,2.2,38,0.00,,---,0.00,VWS V14.01,2013-04-28 15:17:00,
2013-04-28 09:19:00,47.3,23.0,29.94,NNE,18,2.7,2.7,38,0.00,,---,0.00,VWS V14.01,2013-04-28 15:19:00,
2013-04-28 09:20:00,47.3,23.0,29.94,North,9,2.7,3.6,38,0.00,,---,0.00,VWS V14.01,2013-04-28 15:20:00,
2013-04-28 09:21:00,47.3,23.0,29.94,North,7,3.1,4.0,38,0.00,,---,0.00,VWS V14.01,2013-04-28 15:21:00,
2013-04-28 09:22:00,47.3,23.0,29.94,North,8,2.2,4.0,38,0.00,,---,0.00,VWS V14.01,2013-04-28 15:22:00,
2013-04-28 09:24:00,47.3,23.6,29.94,North,10,4.0,4.0,39,0.00,,---,0.00,VWS V14.01,2013-04-28 15:24:00,
2013-04-28 09:25:00,47.3,23.0,29.94,NNE,12,4.0,4.5,38,0.00,,---,0.00,VWS V14.01,2013-04-28 15:25:00,
2013-04-28 09:26:00,47.3,23.0,29.94,North,6,3.6,4.5,38,0.00,,---,0.00,VWS V14.01,2013-04-28 15:26:00,
2013-04-28 09:27:00,47.3,23.0,29.94,NNE,19,2.2,4.5,38,0.00,,---,0.00,VWS V14.01,2013-04-28 15:27:00,
2013-04-28 09:29:00,47.3,23.6,29.94,North,11,4.9,4.9,39,0.00,,---,0.00,VWS V14.01,2013-04-28 15:29:00,
2013-04-28 09:30:00,47.3,23.6,29.94,North,357,4.0,6.7,39,0.00,,---,0.00,VWS V14.01,2013-04-28 15:30:00,
2013-04-28 09:31:00,47.3,23.6,29.94,North,353,4.5,6.7,39,0.00,,---,0.00,VWS V14.01,2013-04-28 15:31:00,
2013-04-28 09:32:00,47.3,23.6,29.94,NNW,345,5.4,6.7,39,0.00,,---,0.00,VWS V14.01,2013-04-28 15:32:00,
2013-04-28 09:35:00,47.1,23.5,29.94,North,353,4.0,6.7,39,0.00,,---,0.00,VWS V14.01,2013-04-28 15:35:00,
2013-04-28 09:36:00,47.1,23.5,29.94,North,357,5.8,6.7,39,0.00,,---,0.00,VWS V14.01,2013-04-28 15:36:00,
2013-04-28 09:37:00,46.9,23.9,29.94,North,2,5.8,8.1,40,0.00,,---,0.00,VWS V14.01,2013-04-28 15:37:00,
2013-04-28 09:40:00,46.8,24.3,29.94,NNW,327,4.9,8.3,41,0.00,,---,0.00,VWS V14.01,2013-04-28 15:40:00,
2013-04-28 09:41:00,46.4,24.0,29.94,NNW,343,4.0,8.3,41,0.00,,---,0.00,VWS V14.01,2013-04-28 15:41:00,
2013-04-28 09:43:00,46.2,24.4,29.94,North,353,5.4,8.3,42,0.00,,---,0.00,VWS V14.01,2013-04-28 15:43:00,
2013-04-28 09:45:00,46.0,24.2,29.94,North,0,5.8,8.3,42,0.00,,---,0.00,VWS V14.01,2013-04-28 15:45:00,
2013-04-28 09:46:00,45.9,24.6,29.94,North,1,5.4,6.3,43,0.00,,---,0.00,VWS V14.01,2013-04-28 15:46:00,
2013-04-28 09:48:00,45.5,24.3,29.94,North,357,4.9,6.3,43,0.00,,---,0.00,VWS V14.01,2013-04-28 15:48:00,
2013-04-28 09:50:00,45.5,24.9,29.94,North,3,3.1,6.3,44,0.00,,---,0.00,VWS V14.01,2013-04-28 15:50:00,
2013-04-28 09:51:00,45.5,25.4,29.94,North,3,4.0,6.3,45,0.00,,---,0.00,VWS V14.01,2013-04-28 15:51:00,
2013-04-28 09:52:00,45.3,25.2,29.94,North,3,4.0,6.3,45,0.00,,---,0.00,VWS V14.01,2013-04-28 15:52:00,
2013-04-28 09:53:00,45.5,26.5,29.94,North,0,4.0,6.3,47,0.00,,---,0.00,VWS V14.01,2013-04-28 15:53:00,
2013-04-28 09:55:00,45.9,25.7,29.94,North,353,7.6,7.6,45,0.00,,---,0.00,VWS V14.01,2013-04-28 15:55:00,
2013-04-28 09:57:00,46.4,25.1,29.94,NNW,343,5.4,7.6,43,0.00,,---,0.00,VWS V14.01,2013-04-28 15:57:00,
2013-04-28 09:59:00,46.8,24.9,29.94,NNW,342,4.0,7.6,42,0.00,,---,0.00,VWS V14.01,2013-04-28 15:59:00,
2013-04-28 10:00:00,47.1,25.8,29.94,NNW,334,3.1,5.4,43,0.00,,---,0.00,VWS V14.01,2013-04-28 16:00:00,
2013-04-28 10:02:00,47.7,25.7,29.94,NNW,341,5.4,5.4,42,0.00,,---,0.00,VWS V14.01,2013-04-28 16:02:00,
2013-04-28 10:04:00,48.0,24.9,29.94,North,357,5.8,8.1,40,0.00,,---,0.00,VWS V14.01,2013-04-28 16:04:00,
2013-04-28 10:05:00,48.2,24.4,29.94,WNW,297,3.1,8.1,39,0.00,,---,0.00,VWS V14.01,2013-04-28 16:05:00,
2013-04-28 10:07:00,48.2,25.0,29.94,North,6,3.6,8.1,40,0.00,,---,0.00,VWS V14.01,2013-04-28 16:07:00,
2013-04-28 10:09:00,48.2,25.0,29.94,West,273,3.6,8.1,40,0.00,,---,0.00,VWS V14.01,2013-04-28 16:09:00,
2013-04-28 10:10:00,48.0,24.9,29.94,SSW,194,4.9,8.1,40,0.00,,---,0.00,VWS V14.01,2013-04-28 16:10:00,
2013-04-28 10:12:00,47.8,24.1,29.94,SSW,193,2.2,8.1,39,0.00,,---,0.00,VWS V14.01,2013-04-28 16:12:00,
2013-04-28 10:13:00,47.8,24.1,29.94,SSW,193,0.0,8.1,39,0.00,,---,0.00,VWS V14.01,2013-04-28 16:13:00,
2013-04-28 10:14:00,47.7,24.5,29.94,SSW,193,3.1,8.1,40,0.00,,---,0.00,VWS V14.01,2013-04-28 16:14:00,
2013-04-28 10:15:00,47.5,24.4,29.91,SSW,193,2.2,3.1,40,0.00,,---,0.00,VWS V14.01,2013-04-28 16:15:00,
2013-04-28 10:17:00,47.3,24.2,29.91,SSW,193,0.0,3.1,40,0.00,,---,0.00,VWS V14.01,2013-04-28 16:17:00,
2013-04-28 10:18:00,47.3,24.2,29.91,SSW,193,0.0,3.1,40,0.00,,---,0.00,VWS V14.01,2013-04-28 16:18:00,
2013-04-28 10:19:00,47.3,24.8,29.91,SSW,193,2.7,3.1,41,0.00,,---,0.00,VWS V14.01,2013-04-28 16:19:00,
2013-04-28 10:21:00,47.1,24.6,29.91,SSW,193,0.0,3.1,41,0.00,,---,0.00,VWS V14.01,2013-04-28 16:21:00,
2013-04-28 10:22:00,47.1,24.6,29.91,SSW,193,0.0,3.1,41,0.00,,---,0.00,VWS V14.01,2013-04-28 16:22:00,
2013-04-28 10:23:00,47.5,25.5,29.91,SSW,193,0.0,3.1,42,0.00,,---,0.00,VWS V14.01,2013-04-28 16:23:00,
2013-04-28 10:25:00,47.7,25.7,29.91,SSW,193,2.7,3.1,42,0.00,,---,0.00,VWS V14.01,2013-04-28 16:25:00,
2013-04-28 10:26:00,48.6,25.4,29.91,South,180,2.2,3.1,40,0.00,,---,0.00,VWS V14.01,2013-04-28 16:26:00,
2013-04-28 10:27:00,49.3,25.4,29.91,West,265,2.7,3.1,39,0.00,,---,0.00,VWS V14.01,2013-04-28 16:27:00,
2013-04-28 10:28:00,50.0,24.8,29.91,West,266,0.0,3.1,37,0.00,,---,0.00,VWS V14.01,2013-04-28 16:28:00,
2013-04-28 10:29:00,50.4,25.7,29.91,West,266,0.0,3.1,38,0.00,,---,0.00,VWS V14.01,2013-04-28 16:29:00,
2013-04-28 10:30:00,51.1,25.7,29.91,SSW,192,5.8,5.8,37,0.00,,---,0.00,VWS V14.01,2013-04-28 16:30:00,
2013-04-28 10:31:00,51.3,25.2,29.91,SSW,206,5.8,5.8,36,0.00,,---,0.00,VWS V14.01,2013-04-28 16:31:00,
2013-04-28 10:32:00,51.8,23.6,29.91,South,189,4.9,5.8,33,0.00,,---,0.00,VWS V14.01,2013-04-28 16:32:00,
2013-04-28 10:33:00,52.2,24.0,29.91,SSW,192,4.0,5.8,33,0.00,,---,0.00,VWS V14.01,2013-04-28 16:33:00,
2013-04-28 10:34:00,52.2,23.2,29.91,SSW,204,2.7,5.8,32,0.00,,---,0.00,VWS V14.01,2013-04-28 16:34:00,
2013-04-28 10:35:00,52.5,22.8,29.91,SSW,192,5.8,7.6,31,0.00,,---,0.00,VWS V14.01,2013-04-28 16:35:00,
2013-04-28 10:36:00,52.5,22.8,29.91,SSW,212,3.1,7.6,31,0.00,,---,0.00,VWS V14.01,2013-04-28 16:36:00,
2013-04-28 10:37:00,53.1,23.2,29.91,WSW,240,3.1,7.6,31,0.00,,---,0.00,VWS V14.01,2013-04-28 16:37:00,
2013-04-28 10:38:00,53.2,22.6,29.91,South,188,4.9,7.6,30,0.00,,---,0.00,VWS V14.01,2013-04-28 16:38:00,
2013-04-28 10:39:00,53.4,23.6,29.91,SSW,213,3.6,7.6,31,0.00,,---,0.00,VWS V14.01,2013-04-28 16:39:00,
2013-04-28 10:40:00,53.6,22.9,29.91,SSW,192,3.6,7.6,30,0.00,,---,0.00,VWS V14.01,2013-04-28 16:40:00,
2013-04-28 10:41:00,53.8,22.3,29.91,South,186,2.2,7.6,29,0.00,,---,0.00,VWS V14.01,2013-04-28 16:41:00,
2013-04-28 10:42:00,54.1,23.4,29.91,South,185,2.7,7.6,30,0.00,,---,0.00,VWS V14.01,2013-04-28 16:42:00,
2013-04-28 10:44:00,54.5,24.5,29.91,ESE,117,4.0,7.6,31,0.00,,---,0.00,VWS V14.01,2013-04-28 16:44:00,
2013-04-28 10:45:00,55.0,25.7,29.91,ESE,106,0.0,3.1,32,0.00,,---,0.00,VWS V14.01,2013-04-28 16:45:00,
2013-04-28 10:46:00,55.2,26.6,29.91,SSW,203,3.1,3.1,33,0.00,,---,0.00,VWS V14.01,2013-04-28 16:46:00,
2013-04-28 10:48:00,55.6,26.2,29.91,SW,224,4.0,4.0,32,0.00,,---,0.00,VWS V14.01,2013-04-28 16:48:00,
2013-04-28 10:49:00,55.6,25.5,29.91,SSE,147,2.7,4.0,31,0.00,,---,0.00,VWS V14.01,2013-04-28 16:49:00,
2013-04-28 10:50:00,55.6,25.5,29.91,South,191,5.4,5.4,31,0.00,,---,0.00,VWS V14.01,2013-04-28 16:50:00,
2013-04-28 10:51:00,55.6,25.5,29.91,South,188,5.4,5.4,31,0.00,,---,0.00,VWS V14.01,2013-04-28 16:51:00,
2013-04-28 10:53:00,55.4,24.5,29.91,SSW,195,6.3,7.6,30,0.00,,---,0.00,VWS V14.01,2013-04-28 16:53:00,
2013-04-28 10:55:00,54.5,25.3,29.91,South,182,4.9,7.6,32,0.00,,---,0.00,VWS V14.01,2013-04-28 16:55:00,
2013-04-28 10:57:00,54.3,25.9,29.91,South,186,4.9,7.6,33,0.00,,---,0.00,VWS V14.01,2013-04-28 16:57:00,
2013-04-28 10:58:00,54.3,24.4,29.91,SSW,196,3.1,7.6,31,0.00,,---,0.00,VWS V14.01,2013-04-28 16:58:00,
2013-04-28 11:00:00,54.5,26.0,29.91,SSE,165,5.8,5.8,33,0.00,,---,0.00,VWS V14.01,2013-04-28 17:00:00,
2013-04-28 11:01:00,54.5,26.0,29.91,SSE,165,5.8,5.8,33,0.00,,---,0.00,VWS V14.01,2013-04-28 17:01:00,
2013-04-28 11:02:00,54.5,25.3,29.91,South,175,3.6,5.8,32,0.00,,---,0.00,VWS V14.01,2013-04-28 17:02:00,
2013-04-28 11:03:00,54.5,24.5,29.91,SSW,197,4.9,5.8,31,0.00,,---,0.00,VWS V14.01,2013-04-28 17:03:00,
2013-04-28 11:05:00,54.5,23.7,29.91,SW,219,5.8,7.6,30,0.00,,---,0.00,VWS V14.01,2013-04-28 17:05:00,
2013-04-28 11:06:00,54.5,23.7,29.91,SW,219,5.8,7.6,30,0.00,,---,0.00,VWS V14.01,2013-04-28 17:06:00,
2013-04-28 11:07:00,54.5,23.7,29.91,SSE,165,2.7,7.6,30,0.00,,---,0.00,VWS V14.01,2013-04-28 17:07:00,
2013-04-28 11:08:00,54.5,24.5,29.91,SE,139,2.7,7.6,31,0.00,,---,0.00,VWS V14.01,2013-04-28 17:08:00,
2013-04-28 11:11:00,55.2,24.4,29.91,SSW,194,2.7,7.6,30,0.00,,---,0.00,VWS V14.01,2013-04-28 17:11:00,
2013-04-28 11:12:00,55.6,23.9,29.91,ESE,113,3.6,7.6,29,0.00,,---,0.00,VWS V14.01,2013-04-28 17:12:00,
2013-04-28 11:13:00,55.8,23.2,29.91,SSW,207,5.8,7.6,28,0.00,,---,0.00,VWS V14.01,2013-04-28 17:13:00,
2013-04-28 11:16:00,56.1,24.3,29.91,SSW,195,2.7,2.7,29,0.00,,---,0.00,VWS V14.01,2013-04-28 17:16:00,
2013-04-28 11:18:00,56.5,24.6,29.91,SSE,168,4.0,4.0,29,0.00,,---,0.00,VWS V14.01,2013-04-28 17:18:00,
2013-04-28 11:21:00,57.2,24.4,29.91,WNW,288,3.1,5.8,28,0.00,,---,0.00,VWS V14.01,2013-04-28 17:21:00,
2013-04-28 11:22:00,57.4,22.8,29.91,NNE,28,5.4,5.8,26,0.00,,---,0.00,VWS V14.01,2013-04-28 17:22:00,
2013-04-28 11:23:00,57.6,23.0,29.91,WNW,298,3.6,5.8,26,0.00,,---,0.00,VWS V14.01,2013-04-28 17:23:00,
2013-04-28 11:24:00,57.7,23.1,29.91,NW,321,4.0,5.8,26,0.00,,---,0.00,VWS V14.01,2013-04-28 17:24:00,
2013-04-28 11:26:00,57.9,24.2,29.91,NNW,345,5.8,5.8,27,0.00,,---,0.00,VWS V14.01,2013-04-28 17:26:00,
2013-04-28 11:27:00,57.9,24.2,29.91,North,353,5.4,6.3,27,0.00,,---,0.00,VWS V14.01,2013-04-28 17:27:00,
2013-04-28 11:28:00,57.4,22.8,29.91,NW,326,8.3,8.3,26,0.00,,---,0.00,VWS V14.01,2013-04-28 17:28:00,
2013-04-28 11:29:00,56.7,23.1,29.91,North,357,8.1,8.3,27,0.00,,---,0.00,VWS V14.01,2013-04-28 17:29:00,
2013-04-28 11:31:00,55.8,23.2,29.91,North,357,5.8,7.6,28,0.00,,---,0.00,VWS V14.01,2013-04-28 17:31:00,
2013-04-28 11:32:00,54.7,22.2,29.91,NW,316,8.7,8.7,28,0.00,,---,0.00,VWS V14.01,2013-04-28 17:32:00,
2013-04-28 11:33:00,54.7,22.2,29.91,North,357,6.3,8.7,28,0.00,,---,0.00,VWS V14.01,2013-04-28 17:33:00,
2013-04-28 11:34:00,54.1,22.6,29.91,North,0,7.6,10.5,29,0.00,,---,0.00,VWS V14.01,2013-04-28 17:34:00,
2013-04-28 11:36:00,53.6,22.9,29.91,North,10,7.6,10.5,30,0.00,,---,0.00,VWS V14.01,2013-04-28 17:36:00,
2013-04-28 11:37:00,53.6,22.9,29.91,North,0,8.1,10.5,30,0.00,,---,0.00,VWS V14.01,2013-04-28 17:37:00,
2013-04-28 11:38:00,53.2,23.4,29.91,North,357,5.4,10.5,31,0.00,,---,0.00,VWS V14.01,2013-04-28 17:38:00,
2013-04-28 11:40:00,52.7,22.9,29.91,North,357,3.6,10.5,31,0.00,,---,0.00,VWS V14.01,2013-04-28 17:40:00,
2013-04-28 11:41:00,52.3,22.6,29.91,North,0,6.3,10.5,31,0.00,,---,0.00,VWS V14.01,2013-04-28 17:41:00,
2013-04-28 11:42:00,52.3,22.6,29.91,North,0,6.3,10.5,31,0.00,,---,0.00,VWS V14.01,2013-04-28 17:42:00,
2013-04-28 11:43:00,52.0,23.8,29.91,North,353,5.4,10.5,33,0.00,,---,0.00,VWS V14.01,2013-04-28 17:43:00,
2013-04-28 11:45:00,51.8,23.6,29.91,NNE,15,5.4,10.5,33,0.00,,---,0.00,VWS V14.01,2013-04-28 17:45:00,
2013-04-28 11:47:00,51.6,23.5,29.88,NNE,16,3.6,6.3,33,0.00,,---,0.00,VWS V14.01,2013-04-28 17:47:00,
2013-04-28 11:48:00,51.6,23.5,29.88,NNW,336,4.0,6.3,33,0.00,,---,0.00,VWS V14.01,2013-04-28 17:48:00,
2013-04-28 11:49:00,51.6,23.5,29.88,NNW,339,3.1,6.3,33,0.00,,---,0.00,VWS V14.01,2013-04-28 17:49:00,
2013-04-28 11:50:00,51.8,22.9,29.88,NNE,17,2.7,6.3,32,0.00,,---,0.00,VWS V14.01,2013-04-28 17:50:00,
2013-04-28 11:52:00,52.3,23.4,29.88,North,4,5.8,7.6,32,0.00,,---,0.00,VWS V14.01,2013-04-28 17:52:00,
2013-04-28 11:53:00,52.5,24.3,29.88,North,357,6.3,7.6,33,0.00,,---,0.00,VWS V14.01,2013-04-28 17:53:00,
2013-04-28 11:54:00,52.7,24.4,29.88,North,353,4.9,7.6,33,0.00,,---,0.00,VWS V14.01,2013-04-28 17:54:00,
2013-04-28 11:55:00,52.7,24.4,29.88,North,5,7.6,8.3,33,0.00,,---,0.00,VWS V14.01,2013-04-28 17:55:00,
2013-04-28 11:58:00,53.1,23.2,29.88,NNE,24,5.4,8.3,31,0.00,,---,0.00,VWS V14.01,2013-04-28 17:58:00,
2013-04-28 11:59:00,53.2,24.9,29.88,NNW,340,5.4,8.3,33,0.00,,---,0.00,VWS V14.01,2013-04-28 17:59:00,
2013-04-28 12:00:00,53.4,23.6,29.88,NW,306,4.9,4.9,31,0.00,,---,0.00,VWS V14.01,2013-04-28 18:00:00,
2013-04-28 12:03:00,54.3,23.6,29.88,NNW,327,4.0,5.8,30,0.00,,---,0.00,VWS V14.01,2013-04-28 18:03:00,
2013-04-28 12:04:00,54.5,22.9,29.88,NNE,24,5.4,5.8,29,0.00,,---,0.00,VWS V14.01,2013-04-28 18:04:00,
2013-04-28 12:06:00,54.5,22.9,29.88,North,1,5.4,5.8,29,0.00,,---,0.00,VWS V14.01,2013-04-28 18:06:00,
2013-04-28 12:08:00,54.5,22.1,29.88,North,357,5.4,6.3,28,0.00,,---,0.00,VWS V14.01,2013-04-28 18:08:00,
2013-04-28 12:09:00,54.5,22.1,29.88,North,3,5.4,6.3,28,0.00,,---,0.00,VWS V14.01,2013-04-28 18:09:00,
2013-04-28 12:12:00,53.8,21.5,29.88,NNE,21,5.4,7.2,28,0.00,,---,0.00,VWS V14.01,2013-04-28 18:12:00,
2013-04-28 12:13:00,53.4,22.8,29.88,NNE,13,4.9,7.2,30,0.00,,---,0.00,VWS V14.01,2013-04-28 18:13:00,
2013-04-28 12:14:00,53.1,22.5,29.88,NE,36,2.7,7.2,30,0.00,,---,0.00,VWS V14.01,2013-04-28 18:14:00,
2013-04-28 12:17:00,53.1,23.2,29.88,NE,36,3.1,3.6,31,0.00,,---,0.00,VWS V14.01,2013-04-28 18:17:00,
2013-04-28 12:18:00,53.2,23.4,29.88,NE,34,2.7,3.6,31,0.00,,---,0.00,VWS V14.01,2013-04-28 18:18:00,
2013-04-28 12:19:00,53.6,22.9,29.88,NNE,28,3.6,4.0,30,0.00,,---,0.00,VWS V14.01,2013-04-28 18:19:00,
2013-04-28 12:22:00,54.7,23.9,29.88,NNE,14,3.1,4.0,30,0.00,,---,0.00,VWS V14.01,2013-04-28 18:22:00,
2013-04-28 12:23:00,54.9,22.4,29.88,North,4,5.8,5.8,28,0.00,,---,0.00,VWS V14.01,2013-04-28 18:23:00,
2013-04-28 12:24:00,54.9,22.4,29.88,NNE,15,4.0,5.8,28,0.00,,---,0.00,VWS V14.01,2013-04-28 18:24:00,
2013-04-28 12:25:00,55.4,22.0,29.88,North,349,4.0,5.8,27,0.00,,---,0.00,VWS V14.01,2013-04-28 18:25:00,
2013-04-28 12:28:00,56.3,22.8,29.88,NE,47,2.7,5.8,27,0.00,,---,0.00,VWS V14.01,2013-04-28 18:28:00,
2013-04-28 12:29:00,56.5,22.0,29.88,North,5,4.9,5.8,26,0.00,,---,0.00,VWS V14.01,2013-04-28 18:29:00,
2013-04-28 12:30:00,56.5,22.0,29.88,North,353,3.6,6.3,26,0.00,,---,0.00,VWS V14.01,2013-04-28 18:30:00,
2013-04-28 12:33:00,56.5,22.0,29.88,North,7,5.8,8.1,26,0.00,,---,0.00,VWS V14.01,2013-04-28 18:33:00,
2013-04-28 12:34:00,56.7,22.2,29.88,North,357,6.3,8.1,26,0.00,,---,0.00,VWS V14.01,2013-04-28 18:34:00,
2013-04-28 12:35:00,56.7,22.2,29.88,NNW,333,4.0,8.1,26,0.00,,---,0.00,VWS V14.01,2013-04-28 18:35:00,
2013-04-28 12:38:00,57.2,21.7,29.88,NNW,331,3.6,10.5,25,0.00,,---,0.00,VWS V14.01,2013-04-28 18:38:00,
2013-04-28 12:39:00,57.6,21.1,29.88,North,9,5.8,10.5,24,0.00,,---,0.00,VWS V14.01,2013-04-28 18:39:00,
2013-04-28 12:40:00,57.9,19.3,29.88,NW,311,12.3,12.3,22,0.00,,---,0.00,VWS V14.01,2013-04-28 18:40:00,
2013-04-28 12:43:00,58.8,16.7,29.88,SW,236,5.8,12.3,19,0.00,,---,0.00,VWS V14.01,2013-04-28 18:43:00,
2013-04-28 12:45:00,59.4,17.1,29.88,WNW,290,4.5,12.3,19,0.00,,---,0.00,VWS V14.01,2013-04-28 18:45:00,
2013-04-28 12:46:00,59.9,15.0,29.88,NW,310,3.1,6.3,17,0.00,,---,0.00,VWS V14.01,2013-04-28 18:46:00,
2013-04-28 12:48:00,60.4,15.4,29.88,SW,236,3.1,6.3,17,0.00,,---,0.00,VWS V14.01,2013-04-28 18:48:00,
2013-04-28 12:50:00,60.6,15.6,29.88,NW,310,2.7,6.3,17,0.00,,---,0.00,VWS V14.01,2013-04-28 18:50:00,
2013-04-28 12:51:00,60.6,11.2,29.88,West,277,5.4,7.6,14,0.00,,---,0.00,VWS V14.01,2013-04-28 18:51:00,
2013-04-28 12:53:00,60.1,15.1,29.88,WNW,292,4.0,7.6,17,0.00,,---,0.00,VWS V14.01,2013-04-28 18:53:00,
2013-04-28 12:54:00,60.1,15.1,29.88,NW,312,4.9,7.6,17,0.00,,---,0.00,VWS V14.01,2013-04-28 18:54:00,
2013-04-28 12:55:00,60.1,10.8,29.88,West,279,2.7,7.6,14,0.00,,---,0.00,VWS V14.01,2013-04-28 18:55:00,
2013-04-28 12:56:00,60.1,10.8,29.88,NW,314,3.6,7.6,14,0.00,,---,0.00,VWS V14.01,2013-04-28 18:56:00,
2013-04-28 12:59:00,60.3,10.9,29.88,SSW,193,4.9,7.6,14,0.00,,---,0.00,VWS V14.01,2013-04-28 18:59:00,
2013-04-28 13:00:00,60.4,11.0,29.88,WSW,256,4.9,5.4,14,0.00,,---,0.00,VWS V14.01,2013-04-28 19:00:00,
2013-04-28 13:01:00,60.4,11.0,29.88,WNW,294,5.8,7.6,14,0.00,,---,0.00,VWS V14.01,2013-04-28 19:01:00,
2013-04-28 13:04:00,60.4,11.0,29.88,WSW,248,2.7,8.1,14,0.00,,---,0.00,VWS V14.01,2013-04-28 19:04:00,
2013-04-28 13:06:00,60.4,11.0,29.88,WSW,257,2.7,8.1,14,0.00,,---,0.00,VWS V14.01,2013-04-28 19:06:00,
2013-04-28 13:09:00,60.4,11.0,29.88,WNW,284,5.4,8.1,14,0.00,,---,0.00,VWS V14.01,2013-04-28 19:09:00,
2013-04-28 13:11:00,60.6,11.2,29.88,West,268,2.7,8.7,14,0.00,,---,0.00,VWS V14.01,2013-04-28 19:11:00,
2013-04-28 13:12:00,60.8,11.3,29.88,NNW,338,3.6,8.7,14,0.00,,---,0.00,VWS V14.01,2013-04-28 19:12:00,
2013-04-28 13:14:00,61.0,11.5,29.88,WNW,294,2.7,8.7,14,0.00,,---,0.00,VWS V14.01,2013-04-28 19:14:00,
2013-04-28 13:16:00,60.6,11.2,29.88,WNW,289,5.4,8.7,14,0.00,,---,0.00,VWS V14.01,2013-04-28 19:16:00,
2013-04-28 13:17:00,60.6,11.2,29.88,WNW,295,4.0,8.7,14,0.00,,---,0.00,VWS V14.01,2013-04-28 19:17:00,
2013-04-28 13:19:00,59.7,10.5,29.88,North,0,4.0,8.7,14,0.00,,---,0.00,VWS V14.01,2013-04-28 19:19:00,
2013-04-28 13:20:00,59.7,10.5,29.88,North,357,3.6,8.7,14,0.00,,---,0.00,VWS V14.01,2013-04-28 19:20:00,
2013-04-28 13:21:00,59.5,10.3,29.88,West,275,2.7,8.7,14,0.00,,---,0.00,VWS V14.01,2013-04-28 19:21:00,
2013-04-28 13:22:00,59.2,10.0,29.88,SSW,197,4.0,8.7,14,0.00,,---,0.00,VWS V14.01,2013-04-28 19:22:00,
2013-04-28 13:24:00,59.2,10.0,29.88,NW,312,2.7,8.7,14,0.00,,---,0.00,VWS V14.01,2013-04-28 19:24:00,
2013-04-28 13:25:00,59.2,10.0,29.88,NW,313,2.2,8.7,14,0.00,,---,0.00,VWS V14.01,2013-04-28 19:25:00,
2013-04-28 13:26:00,59.2,10.0,29.88,WSW,243,3.1,8.7,14,0.00,,---,0.00,VWS V14.01,2013-04-28 19:26:00,
2013-04-28 13:28:00,59.4,10.2,29.88,West,274,2.7,8.7,14,0.00,,---,0.00,VWS V14.01,2013-04-28 19:28:00,
2013-04-28 13:30:00,59.5,10.3,29.88,North,8,3.6,8.7,14,0.00,,---,0.00,VWS V14.01,2013-04-28 19:30:00,
2013-04-28 13:31:00,59.5,10.3,29.85,NW,324,0.0,3.6,14,0.00,,---,0.00,VWS V14.01,2013-04-28 19:31:00,
2013-04-28 13:32:00,59.5,10.3,29.85,NW,324,0.0,3.6,14,0.00,,---,0.00,VWS V14.01,2013-04-28 19:32:00,
2013-04-28 13:34:00,59.5,10.3,29.85,NW,324,2.2,5.8,14,0.00,,---,0.00,VWS V14.01,2013-04-28 19:34:00,
2013-04-28 13:35:00,59.5,10.3,29.85,West,269,0.0,5.8,14,0.00,,---,0.00,VWS V14.01,2013-04-28 19:35:00,
2013-04-28 13:36:00,59.7,10.5,29.85,WNW,300,2.2,5.8,14,0.00,,---,0.00,VWS V14.01,2013-04-28 19:36:00,
2013-04-28 13:37:00,59.7,10.5,29.85,NE,34,3.6,5.8,14,0.00,,---,0.00,VWS V14.01,2013-04-28 19:37:00,
2013-04-28 13:39:00,59.7,10.5,29.85,North,4,2.2,5.8,14,0.00,,---,0.00,VWS V14.01,2013-04-28 19:39:00,
2013-04-28 13:40:00,59.5,10.3,29.85,West,281,2.7,5.8,14,0.00,,---,0.00,VWS V14.01,2013-04-28 19:40:00,
2013-04-28 13:41:00,59.4,10.2,29.85,NNW,344,4.0,5.8,14,0.00,,---,0.00,VWS V14.01,2013-04-28 19:41:00,
2013-04-28 13:42:00,59.2,10.0,29.85,North,353,6.3,6.3,14,0.00,,---,0.00,VWS V14.01,2013-04-28 19:42:00,
2013-04-28 13:44:00,58.8,9.8,29.85,NW,322,4.0,6.3,14,0.00,,---,0.00,VWS V14.01,2013-04-28 19:44:00,
2013-04-28 13:45:00,58.5,9.5,29.85,NW,315,3.6,3.6,14,0.00,,---,0.00,VWS V14.01,2013-04-28 19:45:00,
2013-04-28 13:46:00,58.5,9.5,29.85,NW,308,4.0,4.0,14,0.00,,---,0.00,VWS V14.01,2013-04-28 19:46:00,
2013-04-28 13:47:00,58.3,9.3,29.85,WNW,290,3.1,4.0,14,0.00,,---,0.00,VWS V14.01,2013-04-28 19:47:00,
2013-04-28 13:49:00,58.1,9.2,29.85,NW,318,4.0,5.4,14,0.00,,---,0.00,VWS V14.01,2013-04-28 19:49:00,
2013-04-28 13:50:00,57.9,9.0,29.85,WNW,283,2.7,5.4,14,0.00,,---,0.00,VWS V14.01,2013-04-28 19:50:00,
2013-04-28 13:51:00,57.9,9.0,29.85,West,273,0.0,5.4,14,0.00,,---,0.00,VWS V14.01,2013-04-28 19:51:00,
2013-04-28 13:52:00,57.9,9.0,29.85,West,273,0.0,5.4,14,0.00,,---,0.00,VWS V14.01,2013-04-28 19:52:00,
2013-04-28 13:54:00,57.9,9.0,29.85,West,280,2.2,5.4,14,0.00,,---,0.00,VWS V14.01,2013-04-28 19:54:00,
2013-04-28 13:56:00,58.1,9.2,29.85,NW,307,5.8,5.8,14,0.00,,---,0.00,VWS V14.01,2013-04-28 19:56:00,
2013-04-28 13:57:00,58.3,9.3,29.85,SW,228,6.3,6.3,14,0.00,,---,0.00,VWS V14.01,2013-04-28 19:57:00,
2013-04-28 13:59:00,58.8,9.8,29.85,NNW,342,3.1,6.3,14,0.00,,---,0.00,VWS V14.01,2013-04-28 19:59:00,
2013-04-28 14:01:00,58.8,9.8,29.85,NW,306,3.6,4.9,14,0.00,,---,0.00,VWS V14.01,2013-04-28 20:01:00,
2013-04-28 14:02:00,59.2,10.0,29.85,West,260,3.1,5.4,14,0.00,,---,0.00,VWS V14.01,2013-04-28 20:02:00,
2013-04-28 14:03:00,59.4,10.2,29.85,West,259,2.2,6.3,14,0.00,,---,0.00,VWS V14.01,2013-04-28 20:03:00,
2013-04-28 14:05:00,59.4,10.2,29.85,WSW,255,4.9,7.2,14,0.00,,---,0.00,VWS V14.01,2013-04-28 20:05:00,
2013-04-28 14:06:00,59.4,10.2,29.85,West,275,4.0,7.2,14,0.00,,---,0.00,VWS V14.01,2013-04-28 20:06:00,
2013-04-28 14:07:00,59.4,10.2,29.85,NW,326,4.0,7.2,14,0.00,,---,0.00,VWS V14.01,2013-04-28 20:07:00,
2013-04-28 14:08:00,59.2,10.0,29.85,West,276,4.0,7.2,14,0.00,,---,0.00,VWS V14.01,2013-04-28 20:08:00,
2013-04-28 14:10:00,59.2,6.6,29.85,North,0,5.4,7.6,12,0.00,,---,0.00,VWS V14.01,2013-04-28 20:10:00,
2013-04-28 14:11:00,59.2,6.6,29.85,West,274,4.9,7.6,12,0.00,,---,0.00,VWS V14.01,2013-04-28 20:11:00,
2013-04-28 14:12:00,59.4,10.2,29.85,West,270,3.1,7.6,14,0.00,,---,0.00,VWS V14.01,2013-04-28 20:12:00,
2013-04-28 14:13:00,59.5,10.3,29.85,WNW,289,3.6,7.6,14,0.00,,---,0.00,VWS V14.01,2013-04-28 20:13:00,
2013-04-28 14:15:00,60.3,10.9,29.85,WSW,257,5.4,5.4,14,0.00,,---,0.00,VWS V14.01,2013-04-28 20:15:00,
2013-04-28 14:16:00,60.8,11.3,29.85,WSW,253,3.1,5.4,14,0.00,,---,0.00,VWS V14.01,2013-04-28 20:16:00,
2013-04-28 14:17:00,60.8,11.3,29.85,NNW,330,4.0,5.4,14,0.00,,---,0.00,VWS V14.01,2013-04-28 20:17:00,
2013-04-28 14:19:00,61.0,6.1,29.85,WNW,290,5.8,5.8,11,0.00,,---,0.00,VWS V14.01,2013-04-28 20:19:00,
2013-04-28 14:20:00,61.0,11.5,29.85,NNW,334,3.6,6.3,14,0.00,,---,0.00,VWS V14.01,2013-04-28 20:20:00,
2013-04-28 14:21:00,60.8,11.3,29.85,NNE,15,4.0,8.3,14,0.00,,---,0.00,VWS V14.01,2013-04-28 20:21:00,
2013-04-28 14:22:00,60.4,11.0,29.85,West,264,4.0,8.3,14,0.00,,---,0.00,VWS V14.01,2013-04-28 20:22:00,
2013-04-28 14:24:00,60.3,10.9,29.85,SW,234,2.7,8.3,14,0.00,,---,0.00,VWS V14.01,2013-04-28 20:24:00,
2013-04-28 14:25:00,60.3,10.9,29.85,WSW,247,3.1,8.3,14,0.00,,---,0.00,VWS V14.01,2013-04-28 20:25:00,
2013-04-28 14:27:00,60.1,10.8,29.85,South,189,5.8,8.3,14,0.00,,---,0.00,VWS V14.01,2013-04-28 20:27:00,
2013-04-28 14:28:00,60.1,10.8,29.85,West,267,5.4,9.6,14,0.00,,---,0.00,VWS V14.01,2013-04-28 20:28:00,
2013-04-28 14:29:00,59.9,10.6,29.85,West,269,4.9,9.6,14,0.00,,---,0.00,VWS V14.01,2013-04-28 20:29:00,
2013-04-28 14:30:00,59.9,10.6,29.85,West,271,0.0,3.1,14,0.00,,---,0.00,VWS V14.01,2013-04-28 20:30:00,
2013-04-28 14:32:00,60.1,10.8,29.85,North,6,3.1,3.1,14,0.00,,---,0.00,VWS V14.01,2013-04-28 20:32:00,
2013-04-28 14:33:00,60.1,10.8,29.85,NNW,344,3.1,5.4,14,0.00,,---,0.00,VWS V14.01,2013-04-28 20:33:00,
2013-04-28 14:34:00,60.3,10.9,29.85,NW,321,3.6,8.3,14,0.00,,---,0.00,VWS V14.01,2013-04-28 20:34:00,
2013-04-28 14:35:00,60.3,10.9,29.85,NNE,27,5.8,8.3,14,0.00,,---,0.00,VWS V14.01,2013-04-28 20:35:00,
2013-04-28 14:37:00,60.1,10.8,29.85,North,353,5.4,10.5,14,0.00,,---,0.00,VWS V14.01,2013-04-28 20:37:00,
2013-04-28 14:38:00,59.7,10.5,29.85,NNW,329,3.1,10.5,14,0.00,,---,0.00,VWS V14.01,2013-04-28 20:38:00,
2013-04-28 14:39:00,59.2,10.0,29.85,NNE,29,6.7,10.5,14,0.00,,---,0.00,VWS V14.01,2013-04-28 20:39:00,
2013-04-28 14:40:00,59.0,14.3,29.85,North,0,6.3,10.5,17,0.00,,---,0.00,VWS V14.01,2013-04-28 20:40:00,
2013-04-28 14:41:00,58.8,14.1,29.85,NW,326,5.8,10.5,17,0.00,,---,0.00,VWS V14.01,2013-04-28 20:41:00,
2013-04-28 14:42:00,58.1,13.5,29.85,North,9,6.3,10.5,17,0.00,,---,0.00,VWS V14.01,2013-04-28 20:42:00,
2013-04-28 14:43:00,57.6,13.1,29.85,NNW,339,4.9,10.5,17,0.00,,---,0.00,VWS V14.01,2013-04-28 20:43:00,
2013-04-28 14:45:00,56.8,16.2,29.85,North,357,5.8,10.5,20,0.00,,---,0.00,VWS V14.01,2013-04-28 20:45:00,
2013-04-28 14:46:00,56.5,12.2,29.85,North,357,4.0,8.7,17,0.00,,---,0.00,VWS V14.01,2013-04-28 20:46:00,
2013-04-28 14:47:00,56.3,15.8,29.85,NNW,329,5.4,8.7,20,0.00,,---,0.00,VWS V14.01,2013-04-28 20:47:00,
2013-04-28 14:49:00,55.9,15.5,29.85,WNW,296,5.4,8.7,20,0.00,,---,0.00,VWS V14.01,2013-04-28 20:49:00,
2013-04-28 14:50:00,55.8,15.3,29.85,NNW,341,8.1,8.7,20,0.00,,---,0.00,VWS V14.01,2013-04-28 20:50:00,
2013-04-28 14:51:00,55.6,15.2,29.85,NW,319,5.8,8.7,20,0.00,,---,0.00,VWS V14.01,2013-04-28 20:51:00,
2013-04-28 14:52:00,55.4,15.0,29.85,West,277,5.8,8.7,20,0.00,,---,0.00,VWS V14.01,2013-04-28 20:52:00,
2013-04-28 14:54:00,55.4,17.2,29.85,West,262,3.1,8.7,22,0.00,,---,0.00,VWS V14.01,2013-04-28 20:54:00,
2013-04-28 14:55:00,55.4,17.2,29.85,West,268,5.8,8.7,22,0.00,,---,0.00,VWS V14.01,2013-04-28 20:55:00,
2013-04-28 14:56:00,55.6,17.4,29.85,NW,305,5.4,8.7,22,0.00,,---,0.00,VWS V14.01,2013-04-28 20:56:00,
2013-04-28 14:57:00,55.6,17.4,29.85,SSW,194,8.1,8.7,22,0.00,,---,0.00,VWS V14.01,2013-04-28 20:57:00,
2013-04-28 14:59:00,55.9,15.5,29.85,WSW,239,4.5,8.7,20,0.00,,---,0.00,VWS V14.01,2013-04-28 20:59:00,
2013-04-28 15:00:00,56.1,17.8,29.85,SW,230,3.1,3.1,22,0.00,,---,0.00,VWS V14.01,2013-04-28 21:00:00,
2013-04-28 15:01:00,56.3,15.8,29.85,West,273,4.0,4.0,20,0.00,,---,0.00,VWS V14.01,2013-04-28 21:01:00,
2013-04-28 15:02:00,56.7,16.1,29.85,WNW,284,2.7,6.3,20,0.00,,---,0.00,VWS V14.01,2013-04-28 21:02:00,
2013-04-28 15:04:00,57.0,18.6,29.85,SW,235,4.0,6.3,22,0.00,,---,0.00,VWS V14.01,2013-04-28 21:04:00,
2013-04-28 15:05:00,57.4,15.5,29.85,WNW,289,2.7,6.3,19,0.00,,---,0.00,VWS V14.01,2013-04-28 21:05:00,
2013-04-28 15:06:00,57.7,15.8,29.85,West,268,4.0,6.3,19,0.00,,---,0.00,VWS V14.01,2013-04-28 21:06:00,
2013-04-28 15:07:00,57.7,15.8,29.85,SW,236,4.9,6.3,19,0.00,,---,0.00,VWS V14.01,2013-04-28 21:07:00,
2013-04-28 15:08:00,58.1,13.5,29.85,West,264,4.9,7.6,17,0.00,,---,0.00,VWS V14.01,2013-04-28 21:08:00,
2013-04-28 15:10:00,58.3,16.2,29.85,SW,222,0.0,7.6,19,0.00,,---,0.00,VWS V14.01,2013-04-28 21:10:00,
2013-04-28 15:11:00,58.5,16.4,29.85,NNW,329,3.6,7.6,19,0.00,,---,0.00,VWS V14.01,2013-04-28 21:11:00,
2013-04-28 15:12:00,58.6,14.0,29.85,WNW,282,4.0,7.6,17,0.00,,---,0.00,VWS V14.01,2013-04-28 21:12:00,
2013-04-28 15:13:00,58.8,16.7,29.85,SW,225,5.4,7.6,19,0.00,,---,0.00,VWS V14.01,2013-04-28 21:13:00,
2013-04-28 15:15:00,59.2,17.0,29.85,West,273,2.7,4.9,19,0.00,,---,0.00,VWS V14.01,2013-04-28 21:15:00,
2013-04-28 15:16:00,59.4,17.1,29.85,SW,223,4.0,4.9,19,0.00,,---,0.00,VWS V14.01,2013-04-28 21:16:00,
2013-04-28 15:17:00,59.5,14.7,29.85,SW,224,2.2,4.9,17,0.00,,---,0.00,VWS V14.01,2013-04-28 21:17:00,
2013-04-28 15:18:00,59.7,14.9,29.85,NNW,328,9.6,9.6,17,0.00,,---,0.00,VWS V14.01,2013-04-28 21:18:00,
2013-04-28 15:20:00,59.7,14.9,29.85,NW,324,5.4,9.6,17,0.00,,---,0.00,VWS V14.01,2013-04-28 21:20:00,
2013-04-28 15:22:00,59.5,14.7,29.85,West,281,3.1,9.6,17,0.00,,---,0.00,VWS V14.01,2013-04-28 21:22:00,
2013-04-28 15:24:00,59.7,10.5,29.85,SW,214,3.6,9.6,14,0.00,,---,0.00,VWS V14.01,2013-04-28 21:24:00,
2013-04-28 15:25:00,59.5,10.3,29.85,NW,325,4.0,9.6,14,0.00,,---,0.00,VWS V14.01,2013-04-28 21:25:00,
2013-04-28 15:26:00,59.5,10.3,29.85,North,11,4.0,9.6,14,0.00,,---,0.00,VWS V14.01,2013-04-28 21:26:00,
2013-04-28 15:27:00,59.5,14.7,29.85,WNW,286,3.1,9.6,17,0.00,,---,0.00,VWS V14.01,2013-04-28 21:27:00,
2013-04-28 15:29:00,59.7,14.9,29.85,West,275,6.3,9.6,17,0.00,,---,0.00,VWS V14.01,2013-04-28 21:29:00,
2013-04-28 15:31:00,59.9,10.6,29.85,WNW,290,4.0,6.3,14,0.00,,---,0.00,VWS V14.01,2013-04-28 21:31:00,
2013-04-28 15:32:00,59.9,15.0,29.85,West,274,3.6,6.3,17,0.00,,---,0.00,VWS V14.01,2013-04-28 21:32:00,
2013-04-28 15:34:00,60.1,10.8,29.85,NW,315,5.8,7.6,14,0.00,,---,0.00,VWS V14.01,2013-04-28 21:34:00,
2013-04-28 15:36:00,59.9,10.6,29.85,WSW,251,3.6,7.6,14,0.00,,---,0.00,VWS V14.01,2013-04-28 21:36:00,
2013-04-28 15:37:00,59.7,10.5,29.85,West,277,3.1,7.6,14,0.00,,---,0.00,VWS V14.01,2013-04-28 21:37:00,
2013-04-28 15:40:00,59.7,10.5,29.85,WNW,293,5.4,7.6,14,0.00,,---,0.00,VWS V14.01,2013-04-28 21:40:00,
2013-04-28 15:41:00,59.7,10.5,29.85,WNW,288,6.3,9.2,14,0.00,,---,0.00,VWS V14.01,2013-04-28 21:41:00,
2013-04-28 15:42:00,59.7,10.5,29.85,West,267,7.2,9.2,14,0.00,,---,0.00,VWS V14.01,2013-04-28 21:42:00,
2013-04-28 15:45:00,59.9,10.6,29.82,West,281,5.4,5.4,14,0.00,,---,0.00,VWS V14.01,2013-04-28 21:45:00,
2013-04-28 15:46:00,59.9,10.6,29.82,WSW,254,3.6,6.3,14,0.00,,---,0.00,VWS V14.01,2013-04-28 21:46:00,
2013-04-28 15:47:00,59.9,10.6,29.82,SW,230,6.3,6.3,14,0.00,,---,0.00,VWS V14.01,2013-04-28 21:47:00,
2013-04-28 15:48:00,59.9,10.6,29.82,West,272,3.6,6.3,14,0.00,,---,0.00,VWS V14.01,2013-04-28 21:48:00,
2013-04-28 15:50:00,59.9,10.6,29.82,SSW,213,3.1,6.3,14,0.00,,---,0.00,VWS V14.01,2013-04-28 21:50:00,
2013-04-28 15:51:00,59.9,10.6,29.82,NNW,327,5.8,6.3,14,0.00,,---,0.00,VWS V14.01,2013-04-28 21:51:00,
2013-04-28 15:52:00,60.1,10.8,29.82,WNW,285,5.4,6.3,14,0.00,,---,0.00,VWS V14.01,2013-04-28 21:52:00,
2013-04-28 15:53:00,60.1,10.8,29.82,NW,306,6.3,6.3,14,0.00,,---,0.00,VWS V14.01,2013-04-28 21:53:00,
2013-04-28 15:55:00,60.3,10.9,29.82,WNW,284,5.8,6.7,14,0.00,,---,0.00,VWS V14.01,2013-04-28 21:55:00,
2013-04-28 15:56:00,60.4,11.0,29.82,NW,305,8.7,8.7,14,0.00,,---,0.00,VWS V14.01,2013-04-28 21:56:00,
2013-04-28 15:58:00,60.4,11.0,29.82,WNW,282,5.4,8.7,14,0.00,,---,0.00,VWS V14.01,2013-04-28 21:58:00,
2013-04-28 16:00:00,60.3,10.9,29.82,West,261,4.0,5.8,14,0.00,,---,0.00,VWS V14.01,2013-04-28 22:00:00,
2013-04-28 16:02:00,60.3,10.9,29.82,West,262,3.1,7.2,14,0.00,,---,0.00,VWS V14.01,2013-04-28 22:02:00,
2013-04-28 16:03:00,60.3,10.9,29.82,West,270,8.1,8.1,14,0.00,,---,0.00,VWS V14.01,2013-04-28 22:03:00,
2013-04-28 16:04:00,60.4,11.0,29.82,West,278,4.0,8.1,14,0.00,,---,0.00,VWS V14.01,2013-04-28 22:04:00,
2013-04-28 16:05:00,60.4,11.0,29.82,West,260,6.3,8.1,14,0.00,,---,0.00,VWS V14.01,2013-04-28 22:05:00,
2013-04-28 16:07:00,60.4,11.0,29.82,West,274,5.8,8.1,14,0.00,,---,0.00,VWS V14.01,2013-04-28 22:07:00,
2013-04-28 16:08:00,60.4,11.0,29.82,NW,313,7.2,8.1,14,0.00,,---,0.00,VWS V14.01,2013-04-28 22:08:00,
2013-04-28 16:09:00,60.4,11.0,29.82,West,278,3.1,8.1,14,0.00,,---,0.00,VWS V14.01,2013-04-28 22:09:00,
2013-04-28 16:11:00,60.3,10.9,29.82,WNW,301,5.8,8.1,14,0.00,,---,0.00,VWS V14.01,2013-04-28 22:11:00,
2013-04-28 16:13:00,60.3,10.9,29.82,SW,236,2.7,8.1,14,0.00,,---,0.00,VWS V14.01,2013-04-28 22:13:00,
2013-04-28 16:14:00,60.4,11.0,29.82,NW,326,4.0,8.1,14,0.00,,---,0.00,VWS V14.01,2013-04-28 22:14:00,
2013-04-28 16:17:00,60.6,11.2,29.82,WNW,293,6.3,7.2,14,0.00,,---,0.00,VWS V14.01,2013-04-28 22:17:00,
2013-04-28 16:18:00,60.6,11.2,29.82,NW,318,4.0,7.2,14,0.00,,---,0.00,VWS V14.01,2013-04-28 22:18:00,
2013-04-28 16:19:00,60.6,11.2,29.82,NW,318,7.6,7.6,14,0.00,,---,0.00,VWS V14.01,2013-04-28 22:19:00,
2013-04-28 16:20:00,60.6,11.2,29.82,NNW,329,4.0,7.6,14,0.00,,---,0.00,VWS V14.01,2013-04-28 22:20:00,
2013-04-28 16:22:00,60.6,11.2,29.82,WNW,301,5.4,7.6,14,0.00,,---,0.00,VWS V14.01,2013-04-28 22:22:00,
2013-04-28 16:23:00,60.6,11.2,29.82,NW,316,5.4,7.6,14,0.00,,---,0.00,VWS V14.01,2013-04-28 22:23:00,
2013-04-28 16:24:00,60.6,11.2,29.82,WNW,289,4.0,8.3,14,0.00,,---,0.00,VWS V14.01,2013-04-28 22:24:00,
2013-04-28 16:26:00,60.6,11.2,29.82,SSW,210,3.6,8.3,14,0.00,,---,0.00,VWS V14.01,2013-04-28 22:26:00,
2013-04-28 16:27:00,60.6,11.2,29.82,NW,308,4.0,8.7,14,0.00,,---,0.00,VWS V14.01,2013-04-28 22:27:00,
2013-04-28 16:28:00,60.6,11.2,29.82,NW,314,5.4,8.7,14,0.00,,---,0.00,VWS V14.01,2013-04-28 22:28:00,
2013-04-28 16:29:00,60.6,11.2,29.82,NW,307,3.6,8.7,14,0.00,,---,0.00,VWS V14.01,2013-04-28 22:29:00,
2013-04-28 16:31:00,60.6,11.2,29.82,WNW,297,4.9,5.8,14,0.00,,---,0.00,VWS V14.01,2013-04-28 22:31:00,
2013-04-28 16:33:00,60.8,11.3,29.82,WSW,238,3.6,5.8,14,0.00,,---,0.00,VWS V14.01,2013-04-28 22:33:00,
2013-04-28 16:34:00,60.8,11.3,29.82,WSW,254,5.4,5.8,14,0.00,,---,0.00,VWS V14.01,2013-04-28 22:34:00,
2013-04-28 16:36:00,60.8,11.3,29.82,WSW,254,3.1,6.3,14,0.00,,---,0.00,VWS V14.01,2013-04-28 22:36:00,
2013-04-28 16:38:00,60.6,11.2,29.82,WNW,285,2.7,6.3,14,0.00,,---,0.00,VWS V14.01,2013-04-28 22:38:00,
2013-04-28 16:39:00,60.4,11.0,29.82,NNW,333,3.6,6.3,14,0.00,,---,0.00,VWS V14.01,2013-04-28 22:39:00,
2013-04-28 16:41:00,59.7,10.5,29.82,WSW,248,4.0,7.2,14,0.00,,---,0.00,VWS V14.01,2013-04-28 22:41:00,
2013-04-28 16:43:00,59.5,10.3,29.82,WSW,250,5.4,7.2,14,0.00,,---,0.00,VWS V14.01,2013-04-28 22:43:00,
2013-04-28 16:44:00,59.5,10.3,29.82,West,265,7.6,8.3,14,0.00,,---,0.00,VWS V14.01,2013-04-28 22:44:00,
2013-04-28 16:45:00,59.5,10.3,29.82,WNW,282,4.0,8.3,14,0.00,,---,0.00,VWS V14.01,2013-04-28 22:45:00,
2013-04-28 16:47:00,59.4,10.2,29.82,West,263,3.6,8.1,14,0.00,,---,0.00,VWS V14.01,2013-04-28 22:47:00,
2013-04-28 16:48:00,59.4,10.2,29.82,WSW,244,5.4,8.1,14,0.00,,---,0.00,VWS V14.01,2013-04-28 22:48:00,
2013-04-28 16:49:00,59.4,10.2,29.82,West,267,5.8,8.1,14,0.00,,---,0.00,VWS V14.01,2013-04-28 22:49:00,
2013-04-28 16:50:00,59.4,10.2,29.82,WSW,238,4.0,8.1,14,0.00,,---,0.00,VWS V14.01,2013-04-28 22:50:00,
2013-04-28 16:53:00,59.7,10.5,29.82,West,271,5.4,8.3,14,0.00,,---,0.00,VWS V14.01,2013-04-28 22:53:00,
2013-04-28 16:54:00,59.7,10.5,29.82,WNW,289,6.3,8.3,14,0.00,,---,0.00,VWS V14.01,2013-04-28 22:54:00,
2013-04-28 16:55:00,59.7,10.5,29.82,NNW,334,3.1,8.3,14,0.00,,---,0.00,VWS V14.01,2013-04-28 22:55:00,
2013-04-28 16:58:00,60.1,10.8,29.82,West,267,4.0,8.3,14,0.00,,---,0.00,VWS V14.01,2013-04-28 22:58:00,
2013-04-28 16:59:00,60.1,10.8,29.82,West,281,5.4,8.3,14,0.00,,---,0.00,VWS V14.01,2013-04-28 22:59:00,
2013-04-28 17:00:00,60.1,10.8,29.82,West,268,2.7,4.9,14,0.00,,---,0.00,VWS V14.01,2013-04-28 23:00:00,
2013-04-28 17:03:00,59.5,10.3,29.85,WSW,256,5.8,11.4,14,0.00,,---,0.00,VWS V14.01,2013-04-28 23:03:00,
2013-04-28 17:04:00,59.4,10.2,29.85,West,274,5.4,11.4,14,0.00,,---,0.00,VWS V14.01,2013-04-28 23:04:00,
2013-04-28 17:05:00,58.8,9.8,29.85,West,272,3.6,11.4,14,0.00,,---,0.00,VWS V14.01,2013-04-28 23:05:00,
2013-04-28 17:08:00,58.8,9.8,29.85,NNW,339,5.4,11.4,14,0.00,,---,0.00,VWS V14.01,2013-04-28 23:08:00,
2013-04-28 17:09:00,59.0,9.9,29.85,SSW,210,3.6,11.4,14,0.00,,---,0.00,VWS V14.01,2013-04-28 23:09:00,
2013-04-28 17:10:00,59.2,10.0,29.85,NW,312,3.6,11.4,14,0.00,,---,0.00,VWS V14.01,2013-04-28 23:10:00,
2013-04-28 17:13:00,58.8,9.8,29.85,SW,221,2.7,11.4,14,0.00,,---,0.00,VWS V14.01,2013-04-28 23:13:00,
2013-04-28 17:14:00,58.8,9.8,29.85,West,263,4.0,11.4,14,0.00,,---,0.00,VWS V14.01,2013-04-28 23:14:00,
2013-04-28 17:15:00,58.6,9.6,29.85,NW,305,3.1,3.1,14,0.00,,---,0.00,VWS V14.01,2013-04-28 23:15:00,
2013-04-28 17:18:00,58.8,9.8,29.82,West,276,7.2,7.2,14,0.00,,---,0.00,VWS V14.01,2013-04-28 23:18:00,
2013-04-28 17:20:00,59.2,10.0,29.82,WSW,256,6.3,7.2,14,0.00,,---,0.00,VWS V14.01,2013-04-28 23:20:00,
2013-04-28 17:23:00,59.9,10.6,29.82,SSW,207,4.0,8.7,14,0.00,,---,0.00,VWS V14.01,2013-04-28 23:23:00,
2013-04-28 17:25:00,60.1,10.8,29.82,WSW,252,2.7,8.7,14,0.00,,---,0.00,VWS V14.01,2013-04-28 23:25:00,
2013-04-28 17:26:00,60.3,10.9,29.82,West,275,3.6,8.7,14,0.00,,---,0.00,VWS V14.01,2013-04-28 23:26:00,
2013-04-28 17:29:00,60.4,7.6,29.82,SW,234,4.0,8.7,12,0.00,,---,0.00,VWS V14.01,2013-04-28 23:29:00,
2013-04-28 17:30:00,60.4,7.6,29.82,SSW,206,3.1,5.8,12,0.00,,---,0.00,VWS V14.01,2013-04-28 23:30:00,
2013-04-28 17:31:00,60.4,11.0,29.82,WNW,290,4.9,7.6,14,0.00,,---,0.00,VWS V14.01,2013-04-28 23:31:00,
2013-04-28 17:34:00,60.3,7.5,29.82,West,266,8.3,10.5,12,0.00,,---,0.00,VWS V14.01,2013-04-28 23:34:00,
2013-04-28 17:35:00,60.3,7.5,29.82,SSW,202,4.9,10.5,12,0.00,,---,0.00,VWS V14.01,2013-04-28 23:35:00,
2013-04-28 17:36:00,60.1,7.3,29.82,WNW,286,4.9,10.5,12,0.00,,---,0.00,VWS V14.01,2013-04-28 23:36:00,
2013-04-28 17:39:00,60.1,7.3,29.82,WSW,250,5.4,10.5,12,0.00,,---,0.00,VWS V14.01,2013-04-28 23:39:00,
2013-04-28 17:40:00,60.1,7.3,29.82,NW,307,3.1,10.5,12,0.00,,---,0.00,VWS V14.01,2013-04-28 23:40:00,
2013-04-28 17:41:00,59.9,7.2,29.82,NW,311,5.4,10.5,12,0.00,,---,0.00,VWS V14.01,2013-04-28 23:41:00,
2013-04-28 17:45:00,59.5,6.9,29.82,West,276,5.8,10.5,12,0.00,,---,0.00,VWS V14.01,2013-04-28 23:45:00,
2013-04-28 17:46:00,59.4,6.8,29.82,NNW,332,3.1,5.8,12,0.00,,---,0.00,VWS V14.01,2013-04-28 23:46:00,
2013-04-28 17:48:00,59.4,6.8,29.82,WNW,291,4.0,5.8,12,0.00,,---,0.00,VWS V14.01,2013-04-28 23:48:00,
2013-04-28 17:50:00,59.2,6.6,29.82,South,187,4.9,7.2,12,0.00,,---,0.00,VWS V14.01,2013-04-28 23:50:00,
2013-04-28 17:51:00,59.2,6.6,29.82,WNW,290,3.6,7.2,12,0.00,,---,0.00,VWS V14.01,2013-04-28 23:51:00,
2013-04-28 17:53:00,59.2,6.6,29.82,WNW,294,3.6,7.2,12,0.00,,---,0.00,VWS V14.01,2013-04-28 23:53:00,
2013-04-28 17:55:00,59.2,6.6,29.82,West,266,4.9,7.2,12,0.00,,---,0.00,VWS V14.01,2013-04-28 23:55:00,
2013-04-28 17:56:00,59.2,6.6,29.82,WNW,301,6.3,7.2,12,0.00,,---,0.00,VWS V14.01,2013-04-28 23:56:00,
2013-04-28 17:58:00,59.0,6.5,29.82,West,273,2.7,7.2,12,0.00,,---,0.00,VWS V14.01,2013-04-28 23:58:00,
2013-04-28 18:00:00,58.8,6.3,29.82,NNW,333,4.0,5.4,12,0.00,,---,0.00,VWS V14.01,2013-04-29 00:00:00,
2013-04-28 18:01:00,58.8,6.3,29.82,West,281,4.0,5.4,12,0.00,,---,0.00,VWS V14.01,2013-04-29 00:01:00,
2013-04-28 18:02:00,58.8,6.3,29.82,NW,309,4.9,5.4,12,0.00,,---,0.00,VWS V14.01,2013-04-29 00:02:00,
2013-04-28 18:03:00,58.8,6.3,29.82,SSW,199,5.4,5.4,12,0.00,,---,0.00,VWS V14.01,2013-04-29 00:03:00,
2013-04-28 18:05:00,58.5,6.1,29.82,SW,226,3.6,6.3,12,0.00,,---,0.00,VWS V14.01,2013-04-29 00:05:00,
2013-04-28 18:07:00,58.5,6.1,29.82,NW,317,3.6,6.3,12,0.00,,---,0.00,VWS V14.01,2013-04-29 00:07:00,
2013-04-28 18:08:00,58.3,5.9,29.82,NW,319,3.6,6.3,12,0.00,,---,0.00,VWS V14.01,2013-04-29 00:08:00,
2013-04-28 18:11:00,58.3,5.9,29.82,WNW,286,3.1,6.3,12,0.00,,---,0.00,VWS V14.01,2013-04-29 00:11:00,
2013-04-28 18:12:00,58.3,5.9,29.82,West,269,3.1,6.3,12,0.00,,---,0.00,VWS V14.01,2013-04-29 00:12:00,
2013-04-28 18:13:00,58.3,5.9,29.82,NW,314,5.8,6.3,12,0.00,,---,0.00,VWS V14.01,2013-04-29 00:13:00,
2013-04-28 18:16:00,58.3,5.9,29.82,West,271,5.8,5.8,12,0.00,,---,0.00,VWS V14.01,2013-04-29 00:16:00,
2013-04-28 18:17:00,58.1,5.8,29.82,West,260,5.4,5.8,12,0.00,,---,0.00,VWS V14.01,2013-04-29 00:17:00,
2013-04-28 18:18:00,58.1,5.8,29.82,NW,308,5.4,5.8,12,0.00,,---,0.00,VWS V14.01,2013-04-29 00:18:00,
2013-04-28 18:21:00,57.9,5.6,29.82,West,281,5.4,6.3,12,0.00,,---,0.00,VWS V14.01,2013-04-29 00:21:00,
2013-04-28 18:22:00,57.9,5.6,29.82,WNW,293,2.7,6.3,12,0.00,,---,0.00,VWS V14.01,2013-04-29 00:22:00,
2013-04-28 18:23:00,58.1,5.8,29.82,North,0,3.1,6.3,12,0.00,,---,0.00,VWS V14.01,2013-04-29 00:23:00,
2013-04-28 18:26:00,58.1,5.8,29.82,NW,320,3.6,6.3,12,0.00,,---,0.00,VWS V14.01,2013-04-29 00:26:00,
2013-04-28 18:27:00,58.1,9.2,29.82,NNW,338,5.4,6.3,14,0.00,,---,0.00,VWS V14.01,2013-04-29 00:27:00,
2013-04-28 18:29:00,57.9,5.6,29.82,WNW,284,2.7,6.3,12,0.00,,---,0.00,VWS V14.01,2013-04-29 00:29:00,
2013-04-28 18:31:00,57.6,5.3,29.82,NW,311,3.6,8.3,12,0.00,,---,0.00,VWS V14.01,2013-04-29 00:31:00,
2013-04-28 18:32:00,57.4,8.6,29.82,NW,318,7.2,8.3,14,0.00,,---,0.00,VWS V14.01,2013-04-29 00:32:00,
2013-04-28 18:33:00,57.4,8.6,29.82,NW,318,7.2,8.3,14,0.00,,---,0.00,VWS V14.01,2013-04-29 00:33:00,
2013-04-28 18:34:00,57.0,4.9,29.82,WNW,295,3.6,8.3,12,0.00,,---,0.00,VWS V14.01,2013-04-29 00:34:00,
2013-04-28 18:36:00,56.7,9.6,29.82,WNW,285,3.6,8.3,15,0.00,,---,0.00,VWS V14.01,2013-04-29 00:36:00,
2013-04-28 18:37:00,56.7,9.6,29.82,WNW,285,3.6,8.3,15,0.00,,---,0.00,VWS V14.01,2013-04-29 00:37:00,
2013-04-28 18:38:00,56.5,9.4,29.82,WNW,293,6.3,8.3,15,0.00,,---,0.00,VWS V14.01,2013-04-29 00:38:00,
2013-04-28 18:40:00,56.3,9.3,29.82,West,280,2.7,8.3,15,0.00,,---,0.00,VWS V14.01,2013-04-29 00:40:00,
2013-04-28 18:42:00,56.1,9.1,29.82,NNW,337,3.6,8.3,15,0.00,,---,0.00,VWS V14.01,2013-04-29 00:42:00,
2013-04-28 18:43:00,55.9,9.0,29.82,NW,318,3.6,8.3,15,0.00,,---,0.00,VWS V14.01,2013-04-29 00:43:00,
2013-04-28 18:45:00,55.6,8.7,29.82,WNW,299,3.1,8.3,15,0.00,,---,0.00,VWS V14.01,2013-04-29 00:45:00,
2013-04-28 18:47:00,55.0,8.2,29.82,WNW,297,5.4,5.4,15,0.00,,---,0.00,VWS V14.01,2013-04-29 00:47:00,
2013-04-28 18:48:00,54.9,8.1,29.82,West,269,4.0,5.4,15,0.00,,---,0.00,VWS V14.01,2013-04-29 00:48:00,
2013-04-28 18:50:00,54.7,8.0,29.82,WNW,290,4.5,5.8,15,0.00,,---,0.00,VWS V14.01,2013-04-29 00:50:00,
2013-04-28 18:52:00,54.1,7.5,29.82,WNW,288,3.6,5.8,15,0.00,,---,0.00,VWS V14.01,2013-04-29 00:52:00,
2013-04-28 18:53:00,54.0,7.4,29.82,WNW,291,2.7,5.8,15,0.00,,---,0.00,VWS V14.01,2013-04-29 00:53:00,
2013-04-28 18:54:00,53.8,7.2,29.82,West,272,2.7,5.8,15,0.00,,---,0.00,VWS V14.01,2013-04-29 00:54:00,
2013-04-28 18:55:00,53.6,7.1,29.82,WNW,290,4.0,5.8,15,0.00,,---,0.00,VWS V14.01,2013-04-29 00:55:00,
2013-04-28 18:58:00,53.2,8.2,29.82,NW,312,3.1,5.8,16,0.00,,---,0.00,VWS V14.01,2013-04-29 00:58:00,
2013-04-28 18:59:00,53.1,8.1,29.82,WNW,286,2.7,5.8,16,0.00,,---,0.00,VWS V14.01,2013-04-29 00:59:00,
2013-04-28 19:00:00,53.1,8.1,29.82,West,280,0.0,2.2,16,0.00,,---,0.00,VWS V14.01,2013-04-29 01:00:00,
2013-04-28 19:03:00,53.1,8.1,29.82,WNW,294,2.7,3.6,16,0.00,,---,0.00,VWS V14.01,2013-04-29 01:03:00,
2013-04-28 19:04:00,53.1,8.1,29.82,WNW,291,2.2,3.6,16,0.00,,---,0.00,VWS V14.01,2013-04-29 01:04:00,
2013-04-28 19:05:00,53.1,8.1,29.82,NNW,336,3.6,3.6,16,0.00,,---,0.00,VWS V14.01,2013-04-29 01:05:00,
2013-04-28 19:08:00,53.2,8.2,29.82,NW,309,0.0,3.6,16,0.00,,---,0.00,VWS V14.01,2013-04-29 01:08:00,
2013-04-28 19:09:00,53.2,8.2,29.82,NW,309,0.0,3.6,16,0.00,,---,0.00,VWS V14.01,2013-04-29 01:09:00,
2013-04-28 19:10:00,53.4,8.4,29.82,NW,309,0.0,3.6,16,0.00,,---,0.00,VWS V14.01,2013-04-29 01:10:00,
2013-04-28 19:14:00,53.6,7.1,29.82,NW,322,3.1,3.6,15,0.00,,---,0.00,VWS V14.01,2013-04-29 01:14:00,
2013-04-28 19:15:00,53.6,7.1,29.82,NW,306,0.0,3.6,15,0.00,,---,0.00,VWS V14.01,2013-04-29 01:15:00,
2013-04-28 19:19:00,53.6,7.1,29.82,North,5,8.1,8.1,15,0.00,,---,0.00,VWS V14.01,2013-04-29 01:19:00,
2013-04-28 19:20:00,53.6,7.1,29.82,NNW,348,4.9,8.1,15,0.00,,---,0.00,VWS V14.01,2013-04-29 01:20:00,
2013-04-28 19:21:00,53.6,7.1,29.82,North,0,5.4,8.1,15,0.00,,---,0.00,VWS V14.01,2013-04-29 01:21:00,
2013-04-28 19:24:00,53.6,7.1,29.82,WSW,247,3.1,8.1,15,0.00,,---,0.00,VWS V14.01,2013-04-29 01:24:00,
2013-04-28 19:25:00,53.6,7.1,29.82,West,274,4.0,8.1,15,0.00,,---,0.00,VWS V14.01,2013-04-29 01:25:00,
2013-04-28 19:26:00,53.4,8.4,29.82,NW,323,5.4,8.1,16,0.00,,---,0.00,VWS V14.01,2013-04-29 01:26:00,
2013-04-28 19:29:00,53.2,3.7,29.82,NNW,331,6.3,8.1,13,0.00,,---,0.00,VWS V14.01,2013-04-29 01:29:00,
2013-04-28 19:30:00,53.2,3.7,29.82,WNW,303,4.9,6.3,13,0.00,,---,0.00,VWS V14.01,2013-04-29 01:30:00,
2013-04-28 19:31:00,53.1,3.5,29.82,WNW,303,4.9,6.3,13,0.00,,---,0.00,VWS V14.01,2013-04-29 01:31:00,
2013-04-28 19:35:00,53.1,3.5,29.82,WNW,294,3.6,6.3,13,0.00,,---,0.00,VWS V14.01,2013-04-29 01:35:00,
2013-04-28 19:36:00,52.9,3.4,29.82,WSW,256,5.4,8.1,13,0.00,,---,0.00,VWS V14.01,2013-04-29 01:36:00,
2013-04-28 19:40:00,52.7,3.2,29.82,NW,311,5.8,8.1,13,0.00,,---,0.00,VWS V14.01,2013-04-29 01:40:00,
2013-04-28 19:41:00,52.7,3.2,29.82,WNW,297,4.9,8.1,13,0.00,,---,0.00,VWS V14.01,2013-04-29 01:41:00,
2013-04-28 19:45:00,52.5,3.1,29.82,NNW,343,3.1,6.3,13,0.00,,---,0.00,VWS V14.01,2013-04-29 01:45:00,
2013-04-28 19:46:00,52.5,3.1,29.82,NNW,333,5.4,6.3,13,0.00,,---,0.00,VWS V14.01,2013-04-29 01:46:00,
2013-04-28 19:51:00,52.2,2.8,29.82,West,271,5.4,7.2,13,0.00,,---,0.00,VWS V14.01,2013-04-29 01:51:00,
2013-04-28 19:52:00,52.2,2.8,29.82,WNW,301,6.3,7.2,13,0.00,,---,0.00,VWS V14.01,2013-04-29 01:52:00,
2013-04-28 19:56:00,52.0,2.7,29.82,West,259,3.6,8.1,13,0.00,,---,0.00,VWS V14.01,2013-04-29 01:56:00,
2013-04-28 19:57:00,51.8,2.5,29.82,WNW,282,2.7,8.1,13,0.00,,---,0.00,VWS V14.01,2013-04-29 01:57:00,
2013-04-28 20:01:00,51.6,4.0,29.82,NNW,344,3.6,3.6,14,0.00,,---,0.00,VWS V14.01,2013-04-29 02:01:00,
2013-04-28 20:02:00,51.6,4.0,29.82,WSW,252,2.7,4.0,14,0.00,,---,0.00,VWS V14.01,2013-04-29 02:02:00,
2013-04-28 20:06:00,51.4,3.8,29.82,NW,305,5.4,5.4,14,0.00,,---,0.00,VWS V14.01,2013-04-29 02:06:00,
2013-04-28 20:07:00,51.4,3.8,29.82,WNW,284,3.1,5.4,14,0.00,,---,0.00,VWS V14.01,2013-04-29 02:07:00,
2013-04-28 20:08:00,51.3,3.7,29.82,West,279,3.6,5.4,14,0.00,,---,0.00,VWS V14.01,2013-04-29 02:08:00,
2013-04-28 20:11:00,51.1,3.6,29.82,WNW,292,6.3,6.3,14,0.00,,---,0.00,VWS V14.01,2013-04-29 02:11:00,
2013-04-28 20:12:00,51.1,3.6,29.82,WNW,296,2.7,6.3,14,0.00,,---,0.00,VWS V14.01,2013-04-29 02:12:00,
2013-04-28 20:13:00,51.1,3.6,29.82,West,275,3.1,6.3,14,0.00,,---,0.00,VWS V14.01,2013-04-29 02:13:00,
2013-04-28 20:16:00,50.9,3.4,29.82,West,281,3.1,4.9,14,0.00,,---,0.00,VWS V14.01,2013-04-29 02:16:00,
2013-04-28 20:17:00,50.7,3.3,29.82,West,279,3.1,4.9,14,0.00,,---,0.00,VWS V14.01,2013-04-29 02:17:00,
2013-04-28 20:18:00,50.7,3.3,29.82,West,272,0.0,5.4,14,0.00,,---,0.00,VWS V14.01,2013-04-29 02:18:00,
2013-04-28 20:21:00,50.5,3.1,29.82,West,268,5.4,5.8,14,0.00,,---,0.00,VWS V14.01,2013-04-29 02:21:00,
2013-04-28 20:22:00,50.4,3.0,29.82,West,281,5.8,5.8,14,0.00,,---,0.00,VWS V14.01,2013-04-29 02:22:00,
2013-04-28 20:23:00,50.4,3.0,29.82,WNW,285,3.6,5.8,14,0.00,,---,0.00,VWS V14.01,2013-04-29 02:23:00,
2013-04-28 20:26:00,50.2,2.8,29.82,NW,305,4.0,5.8,14,0.00,,---,0.00,VWS V14.01,2013-04-29 02:26:00,
2013-04-28 20:27:00,50.2,2.8,29.82,West,272,3.6,5.8,14,0.00,,---,0.00,VWS V14.01,2013-04-29 02:27:00,
2013-04-28 20:28:00,50.2,2.8,29.82,WNW,290,2.7,5.8,14,0.00,,---,0.00,VWS V14.01,2013-04-29 02:28:00,
2013-04-28 20:29:00,50.2,2.8,29.82,WNW,290,2.7,5.8,14,0.00,,---,0.00,VWS V14.01,2013-04-29 02:29:00,
2013-04-28 20:31:00,50.0,2.7,29.82,West,274,3.6,4.0,14,0.00,,---,0.00,VWS V14.01,2013-04-29 02:31:00,
2013-04-28 20:32:00,50.0,2.7,29.82,WNW,283,3.6,4.0,14,0.00,,---,0.00,VWS V14.01,2013-04-29 02:32:00,
2013-04-28 20:34:00,49.8,2.5,29.82,WNW,287,4.0,6.3,14,0.00,,---,0.00,VWS V14.01,2013-04-29 02:34:00,
2013-04-28 20:37:00,49.8,5.4,29.82,West,280,4.9,6.3,16,0.00,,---,0.00,VWS V14.01,2013-04-29 02:37:00,
2013-04-28 20:39:00,49.5,5.2,29.82,West,271,5.4,6.3,16,0.00,,---,0.00,VWS V14.01,2013-04-29 02:39:00,
2013-04-28 20:42:00,49.3,5.0,29.82,WNW,290,3.6,6.3,16,0.00,,---,0.00,VWS V14.01,2013-04-29 02:42:00,
2013-04-28 20:44:00,49.3,5.0,29.82,WNW,298,4.0,6.3,16,0.00,,---,0.00,VWS V14.01,2013-04-29 02:44:00,
2013-04-28 20:47:00,48.9,4.7,29.82,West,269,3.6,6.3,16,0.00,,---,0.00,VWS V14.01,2013-04-29 02:47:00,
2013-04-28 20:48:00,48.9,4.7,29.82,West,260,4.9,6.3,16,0.00,,---,0.00,VWS V14.01,2013-04-29 02:48:00,
2013-04-28 20:49:00,48.7,4.6,29.82,West,274,5.4,6.3,16,0.00,,---,0.00,VWS V14.01,2013-04-29 02:49:00,
2013-04-28 20:50:00,48.7,4.6,29.82,WNW,295,5.4,6.3,16,0.00,,---,0.00,VWS V14.01,2013-04-29 02:50:00,
2013-04-28 20:52:00,48.7,4.6,29.82,WNW,297,5.4,6.3,16,0.00,,---,0.00,VWS V14.01,2013-04-29 02:52:00,
2013-04-28 20:53:00,48.7,4.6,29.82,WNW,297,5.4,6.3,16,0.00,,---,0.00,VWS V14.01,2013-04-29 02:53:00,
2013-04-28 20:54:00,48.6,4.4,29.82,WNW,293,6.3,6.3,16,0.00,,---,0.00,VWS V14.01,2013-04-29 02:54:00,
2013-04-28 20:55:00,48.6,4.4,29.82,WNW,283,5.4,6.3,16,0.00,,---,0.00,VWS V14.01,2013-04-29 02:55:00,
2013-04-28 20:57:00,48.6,4.4,29.82,West,278,4.0,6.3,16,0.00,,---,0.00,VWS V14.01,2013-04-29 02:57:00,
2013-04-28 20:58:00,48.4,4.3,29.82,West,270,5.8,6.3,16,0.00,,---,0.00,VWS V14.01,2013-04-29 02:58:00,
2013-04-28 20:59:00,48.4,4.3,29.82,West,279,4.9,6.3,16,0.00,,---,0.00,VWS V14.01,2013-04-29 02:59:00,
2013-04-28 21:01:00,48.4,4.3,29.82,WNW,286,4.0,6.3,16,0.00,,---,0.00,VWS V14.01,2013-04-29 03:01:00,
2013-04-28 21:03:00,48.2,4.1,29.82,WNW,295,4.0,6.3,16,0.00,,---,0.00,VWS V14.01,2013-04-29 03:03:00,
2013-04-28 21:04:00,48.2,4.1,29.82,WNW,303,4.9,6.3,16,0.00,,---,0.00,VWS V14.01,2013-04-29 03:04:00,
2013-04-28 21:06:00,48.2,4.1,29.82,WNW,287,6.3,6.3,16,0.00,,---,0.00,VWS V14.01,2013-04-29 03:06:00,
2013-04-28 21:08:00,48.0,5.3,29.82,NW,306,2.7,6.3,17,0.00,,---,0.00,VWS V14.01,2013-04-29 03:08:00,
2013-04-28 21:09:00,48.0,5.3,29.82,WNW,303,4.9,6.3,17,0.00,,---,0.00,VWS V14.01,2013-04-29 03:09:00,
2013-04-28 21:10:00,48.0,5.3,29.82,West,280,3.6,6.3,17,0.00,,---,0.00,VWS V14.01,2013-04-29 03:10:00,
2013-04-28 21:11:00,47.8,5.2,29.82,West,263,3.6,6.3,17,0.00,,---,0.00,VWS V14.01,2013-04-29 03:11:00,
2013-04-28 21:13:00,47.8,5.2,29.82,NW,305,2.7,6.3,17,0.00,,---,0.00,VWS V14.01,2013-04-29 03:13:00,
2013-04-28 21:14:00,47.8,5.2,29.82,WNW,282,5.4,6.3,17,0.00,,---,0.00,VWS V14.01,2013-04-29 03:14:00,
2013-04-28 21:15:00,47.8,5.2,29.82,NW,320,3.6,6.3,17,0.00,,---,0.00,VWS V14.01,2013-04-29 03:15:00,
2013-04-28 21:16:00,47.7,5.0,29.82,NW,304,3.6,4.9,17,0.00,,---,0.00,VWS V14.01,2013-04-29 03:16:00,
2013-04-28 21:19:00,47.5,4.8,29.82,NW,313,2.7,4.9,17,0.00,,---,0.00,VWS V14.01,2013-04-29 03:19:00,
2013-04-28 21:20:00,47.5,4.8,29.82,NW,306,4.0,4.9,17,0.00,,---,0.00,VWS V14.01,2013-04-29 03:20:00,
2013-04-28 21:21:00,47.3,7.1,29.82,NW,308,3.1,4.9,19,0.00,,---,0.00,VWS V14.01,2013-04-29 03:21:00,
2013-04-28 21:24:00,47.1,7.0,29.82,WNW,299,2.7,5.4,19,0.00,,---,0.00,VWS V14.01,2013-04-29 03:24:00,
2013-04-28 21:25:00,47.1,7.0,29.82,NW,310,3.1,5.4,19,0.00,,---,0.00,VWS V14.01,2013-04-29 03:25:00,
2013-04-28 21:27:00,47.1,7.0,29.82,WNW,295,2.7,5.4,19,0.00,,---,0.00,VWS V14.01,2013-04-29 03:27:00,
2013-04-28 21:29:00,46.9,6.8,29.82,NW,304,3.1,5.4,19,0.00,,---,0.00,VWS V14.01,2013-04-29 03:29:00,
2013-04-28 21:30:00,46.9,6.8,29.82,NW,308,3.6,5.4,19,0.00,,---,0.00,VWS V14.01,2013-04-29 03:30:00,
2013-04-28 21:32:00,46.8,6.7,29.82,WNW,299,3.6,3.6,19,0.00,,---,0.00,VWS V14.01,2013-04-29 03:32:00,
2013-04-28 21:34:00,46.8,6.7,29.82,WNW,288,2.7,3.6,19,0.00,,---,0.00,VWS V14.01,2013-04-29 03:34:00,
2013-04-28 21:35:00,46.6,6.5,29.82,WNW,292,2.7,3.6,19,0.00,,---,0.00,VWS V14.01,2013-04-29 03:35:00,
2013-04-28 21:37:00,46.6,6.5,29.82,WNW,291,2.2,3.6,19,0.00,,---,0.00,VWS V14.01,2013-04-29 03:37:00,
2013-04-28 21:39:00,46.4,6.4,29.82,WNW,289,2.2,3.6,19,0.00,,---,0.00,VWS V14.01,2013-04-29 03:39:00,
2013-04-28 21:40:00,46.4,6.4,29.82,WNW,289,2.2,3.6,19,0.00,,---,0.00,VWS V14.01,2013-04-29 03:40:00,
2013-04-28 21:42:00,46.2,7.4,29.82,West,277,2.7,3.6,20,0.00,,---,0.00,VWS V14.01,2013-04-29 03:42:00,
2013-04-28 21:44:00,46.0,7.2,29.82,West,276,2.7,3.6,20,0.00,,---,0.00,VWS V14.01,2013-04-29 03:44:00,
2013-04-28 21:45:00,46.0,7.2,29.82,West,276,2.2,3.6,20,0.00,,---,0.00,VWS V14.01,2013-04-29 03:45:00,
2013-04-28 21:48:00,45.9,7.1,29.82,West,276,0.0,2.2,20,0.00,,---,0.00,VWS V14.01,2013-04-29 03:48:00,
2013-04-28 21:49:00,45.7,9.0,29.82,West,276,0.0,2.2,22,0.00,,---,0.00,VWS V14.01,2013-04-29 03:49:00,
2013-04-28 21:50:00,45.7,9.0,29.82,West,276,0.0,2.2,22,0.00,,---,0.00,VWS V14.01,2013-04-29 03:50:00,
2013-04-28 21:51:00,45.5,6.8,29.82,West,276,2.2,2.2,20,0.00,,---,0.00,VWS V14.01,2013-04-29 03:51:00,
2013-04-28 21:53:00,45.5,8.9,29.82,West,276,0.0,2.7,22,0.00,,---,0.00,VWS V14.01,2013-04-29 03:53:00,
2013-04-28 21:54:00,45.3,8.7,29.82,West,276,2.7,2.7,22,0.00,,---,0.00,VWS V14.01,2013-04-29 03:54:00,
2013-04-28 21:55:00,45.3,8.7,29.82,WNW,290,2.2,3.1,22,0.00,,---,0.00,VWS V14.01,2013-04-29 03:55:00,
2013-04-28 21:56:00,45.3,8.7,29.82,West,277,2.7,3.1,22,0.00,,---,0.00,VWS V14.01,2013-04-29 03:56:00,
2013-04-28 21:58:00,45.3,8.7,29.82,West,278,2.2,3.1,22,0.00,,---,0.00,VWS V14.01,2013-04-29 03:58:00,
2013-04-28 21:59:00,45.3,8.7,29.82,West,276,2.7,3.1,22,0.00,,---,0.00,VWS V14.01,2013-04-29 03:59:00,
2013-04-28 22:00:00,45.3,8.7,29.82,West,276,2.2,3.1,22,0.00,,---,0.00,VWS V14.01,2013-04-29 04:00:00,
2013-04-28 22:01:00,45.1,8.6,29.82,West,274,3.1,3.1,22,0.00,,---,0.00,VWS V14.01,2013-04-29 04:01:00,
2013-04-28 22:06:00,45.1,8.6,29.82,West,265,2.7,3.1,22,0.00,,---,0.00,VWS V14.01,2013-04-29 04:06:00,
2013-04-28 22:07:00,45.1,8.6,29.82,West,265,2.7,3.1,22,0.00,,---,0.00,VWS V14.01,2013-04-29 04:07:00,
2013-04-28 22:11:00,45.1,11.4,29.82,WSW,256,2.2,3.6,25,0.00,,---,0.00,VWS V14.01,2013-04-29 04:11:00,
2013-04-28 22:12:00,45.1,8.6,29.82,WSW,256,2.7,3.6,22,0.00,,---,0.00,VWS V14.01,2013-04-29 04:12:00,
2013-04-28 22:16:00,45.1,11.4,29.82,WSW,256,0.0,2.2,25,0.00,,---,0.00,VWS V14.01,2013-04-29 04:16:00,
2013-04-28 22:17:00,45.0,11.3,29.82,WSW,256,0.0,2.2,25,0.00,,---,0.00,VWS V14.01,2013-04-29 04:17:00,
2013-04-28 22:21:00,44.6,11.0,29.82,WSW,256,0.0,2.2,25,0.00,,---,0.00,VWS V14.01,2013-04-29 04:21:00,
2013-04-28 22:22:00,44.6,11.0,29.82,WSW,256,0.0,2.2,25,0.00,,---,0.00,VWS V14.01,2013-04-29 04:22:00,
2013-04-28 22:23:00,44.6,11.0,29.82,WSW,256,0.0,2.2,25,0.00,,---,0.00,VWS V14.01,2013-04-29 04:23:00,
2013-04-28 22:26:00,44.2,10.7,29.82,WSW,256,0.0,2.2,25,0.00,,---,0.00,VWS V14.01,2013-04-29 04:26:00,
2013-04-28 22:27:00,44.1,10.5,29.82,WSW,256,0.0,2.2,25,0.00,,---,0.00,VWS V14.01,2013-04-29 04:27:00,
2013-04-28 22:28:00,44.1,10.5,29.82,WSW,256,0.0,2.2,25,0.00,,---,0.00,VWS V14.01,2013-04-29 04:28:00,
2013-04-28 22:31:00,43.9,12.9,29.82,WSW,256,2.7,2.7,28,0.00,,---,0.00,VWS V14.01,2013-04-29 04:31:00,
2013-04-28 22:32:00,43.9,10.4,29.82,WSW,256,2.2,2.7,25,0.00,,---,0.00,VWS V14.01,2013-04-29 04:32:00,
2013-04-28 22:33:00,44.1,13.1,29.82,WSW,256,2.7,2.7,28,0.00,,---,0.00,VWS V14.01,2013-04-29 04:33:00,
2013-04-28 22:36:00,44.1,13.1,29.82,WSW,256,0.0,2.7,28,0.00,,---,0.00,VWS V14.01,2013-04-29 04:36:00,
2013-04-28 22:37:00,44.1,10.5,29.82,WSW,256,0.0,2.7,25,0.00,,---,0.00,VWS V14.01,2013-04-29 04:37:00,
2013-04-28 22:38:00,44.1,13.1,29.82,WSW,256,0.0,2.7,28,0.00,,---,0.00,VWS V14.01,2013-04-29 04:38:00,
2013-04-28 22:41:00,43.9,12.9,29.82,WSW,256,0.0,2.7,28,0.00,,---,0.00,VWS V14.01,2013-04-29 04:41:00,
2013-04-28 22:42:00,43.9,12.9,29.82,WSW,256,0.0,2.7,28,0.00,,---,0.00,VWS V14.01,2013-04-29 04:42:00,
2013-04-28 22:43:00,43.9,12.9,29.82,WSW,256,0.0,2.7,28,0.00,,---,0.00,VWS V14.01,2013-04-29 04:43:00,
2013-04-28 22:47:00,43.7,12.8,29.82,WSW,256,0.0,0.0,28,0.00,,---,0.00,VWS V14.01,2013-04-29 04:47:00,
2013-04-28 22:48:00,43.5,12.6,29.82,WSW,256,0.0,0.0,28,0.00,,---,0.00,VWS V14.01,2013-04-29 04:48:00,
2013-04-28 22:52:00,43.5,12.6,29.82,WSW,256,0.0,0.0,28,0.00,,---,0.00,VWS V14.01,2013-04-29 04:52:00,
2013-04-28 22:53:00,43.5,12.6,29.82,WSW,256,0.0,0.0,28,0.00,,---,0.00,VWS V14.01,2013-04-29 04:53:00,
2013-04-28 22:54:00,43.3,12.4,29.82,WSW,256,0.0,0.0,28,0.00,,---,0.00,VWS V14.01,2013-04-29 04:54:00,
2013-04-28 22:57:00,43.3,12.4,29.82,WSW,256,2.2,2.2,28,0.00,,---,0.00,VWS V14.01,2013-04-29 04:57:00,
2013-04-28 22:58:00,43.2,12.3,29.82,WSW,256,2.2,2.2,28,0.00,,---,0.00,VWS V14.01,2013-04-29 04:58:00,
2013-04-28 22:59:00,43.2,12.3,29.82,WSW,256,0.0,2.2,28,0.00,,---,0.00,VWS V14.01,2013-04-29 04:59:00,
2013-04-28 23:02:00,43.2,12.3,29.82,SW,229,0.0,3.1,28,0.00,,---,0.00,VWS V14.01,2013-04-29 05:02:00,
2013-04-28 23:03:00,43.2,12.3,29.82,SW,229,0.0,3.1,28,0.00,,---,0.00,VWS V14.01,2013-04-29 05:03:00,
2013-04-28 23:05:00,43.0,12.1,29.82,SW,229,2.7,3.1,28,0.00,,---,0.00,VWS V14.01,2013-04-29 05:05:00,
2013-04-28 23:07:00,43.0,12.1,29.82,SW,229,2.2,3.1,28,0.00,,---,0.00,VWS V14.01,2013-04-29 05:07:00,
2013-04-28 23:08:00,43.0,12.1,29.82,SW,229,2.2,3.1,28,0.00,,---,0.00,VWS V14.01,2013-04-29 05:08:00,
2013-04-28 23:09:00,43.0,12.1,29.82,SW,229,2.7,3.1,28,0.00,,---,0.00,VWS V14.01,2013-04-29 05:09:00,
2013-04-28 23:10:00,42.8,12.0,29.82,SW,229,0.0,3.1,28,0.00,,---,0.00,VWS V14.01,2013-04-29 05:10:00,
2013-04-28 23:13:00,42.6,12.6,29.82,SSW,206,3.1,3.6,29,0.00,,---,0.00,VWS V14.01,2013-04-29 05:13:00,
2013-04-28 23:14:00,42.4,12.4,29.82,SSW,206,3.1,3.6,29,0.00,,---,0.00,VWS V14.01,2013-04-29 05:14:00,
2013-04-28 23:15:00,42.4,12.4,29.82,SSW,206,2.7,2.7,29,0.00,,---,0.00,VWS V14.01,2013-04-29 05:15:00,
2013-04-28 23:18:00,41.7,11.8,29.82,SSW,206,2.7,2.7,29,0.00,,---,0.00,VWS V14.01,2013-04-29 05:18:00,
2013-04-28 23:19:00,41.7,11.8,29.82,SSW,206,2.2,2.7,29,0.00,,---,0.00,VWS V14.01,2013-04-29 05:19:00,
2013-04-28 23:20:00,41.5,11.7,29.82,SSW,206,3.1,3.1,29,0.00,,---,0.00,VWS V14.01,2013-04-29 05:20:00,
2013-04-28 23:23:00,41.7,11.8,29.82,SSW,207,2.7,3.6,29,0.00,,---,0.00,VWS V14.01,2013-04-29 05:23:00,
2013-04-28 23:24:00,41.7,11.8,29.82,SSW,207,2.7,3.6,29,0.00,,---,0.00,VWS V14.01,2013-04-29 05:24:00,
2013-04-28 23:25:00,41.9,12.0,29.82,SSW,207,2.7,3.6,29,0.00,,---,0.00,VWS V14.01,2013-04-29 05:25:00,
2013-04-28 23:28:00,42.4,12.4,29.82,SSW,209,2.7,3.6,29,0.00,,---,0.00,VWS V14.01,2013-04-29 05:28:00,
2013-04-28 23:29:00,42.6,11.8,29.82,SSW,209,2.7,3.6,28,0.00,,---,0.00,VWS V14.01,2013-04-29 05:29:00,
2013-04-28 23:30:00,42.6,11.8,29.82,SSW,209,2.7,2.7,28,0.00,,---,0.00,VWS V14.01,2013-04-29 05:30:00,
2013-04-28 23:33:00,43.2,12.3,29.82,SSW,209,0.0,3.1,28,0.00,,---,0.00,VWS V14.01,2013-04-29 05:33:00,
2013-04-28 23:34:00,43.2,12.3,29.82,SSW,209,2.2,3.1,28,0.00,,---,0.00,VWS V14.01,2013-04-29 05:34:00,
2013-04-28 23:35:00,43.2,12.3,29.82,SSW,209,2.2,3.1,28,0.00,,---,0.00,VWS V14.01,2013-04-29 05:35:00,
2013-04-28 23:38:00,43.5,12.6,29.82,SSW,209,2.7,3.1,28,0.00,,---,0.00,VWS V14.01,2013-04-29 05:38:00,
2013-04-28 23:39:00,43.5,12.6,29.82,SSW,204,2.7,3.1,28,0.00,,---,0.00,VWS V14.01,2013-04-29 05:39:00,
2013-04-28 23:40:00,43.5,12.6,29.82,SSW,204,2.7,3.1,28,0.00,,---,0.00,VWS V14.01,2013-04-29 05:40:00,
2013-04-28 23:41:00,43.3,12.4,29.82,SSW,204,2.2,3.1,28,0.00,,---,0.00,VWS V14.01,2013-04-29 05:41:00,
2013-04-28 23:44:00,42.6,11.8,29.82,SSW,204,0.0,3.6,28,0.00,,---,0.00,VWS V14.01,2013-04-29 05:44:00,
2013-04-28 23:45:00,42.3,11.5,29.82,SSW,204,0.0,3.6,28,0.00,,---,0.00,VWS V14.01,2013-04-29 05:45:00,
2013-04-28 23:46:00,41.9,11.2,29.82,SSW,204,0.0,0.0,28,0.00,,---,0.00,VWS V14.01,2013-04-29 05:46:00,
2013-04-28 23:49:00,41.2,11.4,29.82,SSW,204,0.0,2.7,29,0.00,,---,0.00,VWS V14.01,2013-04-29 05:49:00,
2013-04-28 23:50:00,41.2,11.4,29.82,SSW,204,0.0,2.7,29,0.00,,---,0.00,VWS V14.01,2013-04-29 05:50:00,
2013-04-28 23:51:00,40.8,11.0,29.82,SSW,204,0.0,2.7,29,0.00,,---,0.00,VWS V14.01,2013-04-29 05:51:00,
2013-04-28 23:54:00,40.5,10.7,29.82,SSW,204,0.0,2.7,29,0.00,,---,0.00,VWS V14.01,2013-04-29 05:54:00,
2013-04-28 23:55:00,40.1,11.2,29.82,SSW,204,0.0,2.7,30,0.00,,---,0.00,VWS V14.01,2013-04-29 05:55:00,
2013-04-28 23:56:00,40.1,11.2,29.82,SSW,204,0.0,2.7,30,0.00,,---,0.00,VWS V14.01,2013-04-29 05:56:00,
2013-04-28 23:59:00,39.9,11.0,29.82,SSW,204,2.7,2.7,30,0.00,,---,0.00,VWS V14.01,2013-04-29 05:59:00,